GFSSGP_500_spd_000.txt.gz
Wind_Speed
30 27 25 23 23 17 18 23 22 22 24 24 24 23 23 25 24 19 17 17 19 22 27 30 25 20 25 26 27 23 23 23 27 21 25 34 40 35 27 36 30 27 24 21 24 25 23 23 23
24 19 17 17 17 13 13 19 20 21 23 24 25 24 24 23 23 23 20 16 18 21 23 28 29 27 29 29 27 22 26 28 30 12 25 34 32 38 38 28 31 24 24 24 28 24 25 24 25
20 13 12 13 13 11 12 14 15 18 19 24 26 27 25 24 24 24 25 25 26 29 32 35 36 31 29 33 32 27 27 32 28 30 31 37 40 39 38 28 16 27 27 23 24 26 29 26 29
14 10 10 10 14 14 14 13 15 16 17 21 23 24 25 26 27 27 29 30 29 33 38 40 31 30 30 31 31 34 35 37 37 32 34 36 41 37 38 36 29 30 33 34 29 30 25 32 37
8 6 7 9 11 12 13 12 14 16 17 20 21 22 23 23 23 25 27 28 30 32 32 29 30 32 33 34 32 30 33 34 36 35 35 38 42 39 38 39 35 38 36 36 30 31 34 35 32
5 4 6 8 8 9 9 10 13 15 17 19 22 21 23 22 22 26 27 29 28 29 31 34 37 39 38 38 40 41 43 41 40 38 40 42 42 44 39 37 38 39 39 37 37 36 38 34 36
4 4 5 5 6 6 5 4 7 8 11 13 17 21 23 24 23 28 29 29 25 27 29 33 35 38 38 39 39 39 38 39 40 42 40 42 48 48 48 45 44 46 42 43 49 47 45 42 38
4 3 2 1 2 1 1 1 2 5 9 11 14 19 23 25 25 26 28 28 26 26 27 31 33 35 36 37 37 34 33 36 36 35 36 36 36 47 52 53 52 50 51 54 53 53 52 49 42
2 3 1 0 2 3 4 5 6 8 11 15 19 22 25 27 29 29 30 28 24 24 26 28 30 33 33 32 32 33 33 33 35 37 39 37 37 38 42 53 57 58 57 58 61 60 61 56 51
2 2 4 5 6 7 8 9 11 13 15 18 21 23 26 28 28 27 26 26 26 26 28 30 30 30 30 31 31 29 30 31 32 35 39 41 43 42 45 50 62 63 66 67 62 63 65 64 57
4 4 7 8 8 9 10 11 13 14 17 19 21 21 22 22 21 22 24 25 26 28 28 29 29 30 33 34 35 36 36 36 37 40 44 47 48 48 46 47 41 71 63 59 60 55 73 63 61
8 7 6 6 7 8 9 11 13 15 15 15 19 20 20 20 20 20 22 24 25 28 31 30 31 33 34 34 30 29 28 28 28 28 30 34 37 34 35 35 33 47 35 48 50 29 40 57 69
22 17 17 18 19 18 18 15 14 13 10 7 6 8 11 13 15 15 13 10 10 11 12 13 14 13 16 19 21 20 19 19 19 21 23 24 25 27 27 32 36 34 54 53 64 53 56 54 42
19 19 19 18 17 15 15 17 15 13 13 12 13 13 11 12 12 11 12 11 10 11 11 12 13 15 16 18 20 23 24 24 28 30 31 32 33 32 30 29 29 28 31 37 53 48 50 65 67
14 13 12 13 13 13 13 12 12 11 12 11 11 11 12 13 15 15 15 14 16 17 18 18 20 22 25 26 29 32 32 34 34 34 36 37 39 39 37 37 35 36 33 32 31 40 49 44 41
10 9 10 9 10 11 11 11 10 9 11 11 12 14 14 15 15 15 16 17 19 20 22 23 27 29 30 33 34 36 38 39 40 41 41 41 42 44 43 42 42 40 40 40 38 36 38 39 45
11 10 9 10 11 11 10 13 13 13 17 20 19 20 21 21 22 22 23 24 26 27 28 30 31 32 34 36 38 40 42 44 45 46 46 46 46 47 47 46 47 48 45 46 46 44 42 43 43
15 14 14 11 6 9 9 13 16 14 16 20 23 23 22 23 25 25 28 29 31 32 33 33 34 35 37 39 42 44 46 48 49 51 52 52 53 53 52 51 50 50 51 51 50 49 49 49 48
16 15 15 13 12 10 13 13 18 19 19 20 23 24 24 24 26 28 29 30 33 34 34 35 36 38 40 42 44 45 48 51 52 53 55 57 58 58 57 57 57 56 55 54 54 54 54 54 53
17 12 7 11 12 11 13 17 18 22 22 22 22 23 25 26 27 27 27 30 32 34 36 38 40 42 44 47 50 52 55 56 57 58 59 61 63 64 63 62 61 60 60 59 59 59 59 59 59
17 15 13 10 7 9 11 13 17 22 21 21 22 23 25 25 26 28 31 34 35 37 39 41 44 47 49 51 53 56 61 61 62 63 65 67 67 69 68 66 65 65 64 64 64 64 64 63 63
15 15 16 17 14 13 13 12 17 23 20 19 19 19 19 21 24 26 30 33 35 38 41 45 48 50 53 55 57 60 63 65 66 66 67 70 71 70 72 71 68 67 68 68 67 66 67 68 70
15 14 16 20 18 16 16 19 26 25 21 22 23 24 23 24 24 27 30 33 36 40 45 48 52 55 57 59 63 64 66 67 70 72 70 70 70 70 71 73 71 67 68 67 68 68 68 70 71
19 18 17 16 15 13 13 19 26 27 27 25 26 28 28 29 30 32 35 39 42 44 47 50 54 58 61 63 65 66 68 71 71 70 71 73 70 69 72 74 72 70 70 70 69 69 68 69 70
22 21 24 23 18 20 16 18 26 25 28 29 31 32 34 35 37 40 44 47 49 51 54 56 59 63 66 67 69 70 70 70 70 69 69 68 66 68 70 70 69 69 71 72 73 74 73 73 73
22 24 28 29 27 18 21 21 27 29 29 31 34 38 42 43 45 45 48 51 53 56 60 63 67 69 70 71 72 74 75 71 71 68 65 64 64 65 66 66 67 68 70 71 73 76 79 82 83
22 25 28 33 33 28 22 27 27 37 40 40 41 45 48 51 53 52 53 55 57 61 64 67 72 74 74 75 76 74 70 69 68 66 67 65 65 64 65 65 66 67 69 73 77 80 83 87 89
25 27 31 35 36 41 38 30 34 41 47 49 49 53 55 58 57 57 57 58 59 62 66 70 74 76 76 75 73 71 68 68 66 66 66 64 65 65 66 69 69 71 74 78 81 85 88 92 92
25 27 32 35 37 41 46 40 35 41 48 54 55 57 60 62 57 58 59 59 61 64 68 73 76 77 75 74 71 67 66 64 63 63 64 64 64 65 66 69 72 75 79 84 87 89 89 91 92
26 32 30 34 38 43 49 43 39 44 51 56 59 61 63 63 62 61 59 60 66 69 72 76 78 76 72 69 66 65 63 60 60 63 62 62 64 65 70 72 76 80 82 83 84 87 91 93 91

GFSSGP_500_spd_003.txt.gz
Wind_Speed
32 29 24 17 14 10 8 21 24 20 14 25 25 23 23 22 19 21 23 19 20 22 23 26 27 30 34 33 24 34 27 28 30 31 32 37 37 39 39 39 42 38 35 33 29 28 27 24 19
25 20 15 7 4 7 10 26 11 16 23 18 22 21 25 24 26 26 30 22 23 24 25 27 29 32 32 30 29 32 31 33 34 33 37 40 39 42 34 40 30 47 21 27 31 31 25 21 20
18 11 10 4 5 9 15 15 26 18 16 20 23 24 22 23 23 25 26 26 27 28 30 31 32 35 34 33 36 35 32 29 36 38 37 36 43 44 46 44 33 37 30 30 28 30 32 27 19
7 5 3 3 8 22 28 24 15 15 15 20 23 25 27 28 29 29 29 30 29 31 34 38 41 40 41 37 31 32 28 29 28 33 39 46 47 48 43 42 43 39 41 31 28 24 19 20 20
3 0 2 7 15 14 19 17 15 14 18 16 18 23 23 23 23 26 29 33 35 37 38 39 41 40 36 36 33 32 30 31 34 35 37 41 41 45 42 43 42 45 43 31 23 26 27 25 25
3 3 3 3 8 11 12 15 17 18 16 17 17 21 22 25 25 27 29 31 32 33 36 37 35 34 36 38 37 37 39 41 40 41 42 43 46 46 46 46 48 49 44 39 39 39 34 34 32
7 8 10 4 6 8 8 9 11 14 17 19 22 12 25 26 26 27 29 32 33 35 32 30 30 30 30 30 32 34 37 38 37 36 36 38 42 44 42 38 39 48 51 43 46 51 42 41 42
8 7 6 4 3 6 7 9 11 13 14 15 17 18 24 25 27 28 29 31 31 32 32 28 28 28 28 27 30 31 33 32 32 34 35 38 39 42 43 41 40 42 48 50 48 50 50 49 48
6 6 3 4 2 8 9 11 12 13 15 17 19 22 25 25 27 29 29 29 29 27 27 27 27 26 26 26 27 29 29 29 30 32 35 37 38 40 42 43 44 44 45 49 54 54 56 55 55
9 5 4 6 7 9 9 11 11 12 14 18 20 22 24 25 25 23 22 20 21 24 26 27 28 29 28 29 30 31 31 32 32 34 37 39 42 45 47 50 50 50 52 52 53 54 63 63 58
9 5 5 4 5 6 8 9 10 12 16 18 20 21 21 20 20 20 22 24 27 28 29 30 30 31 30 30 33 35 35 36 37 37 38 39 42 45 46 48 47 45 46 53 56 62 61 65 69
18 14 12 13 14 15 14 13 12 10 8 10 12 13 15 17 18 19 19 18 15 13 13 13 14 15 15 15 15 15 16 17 18 19 20 23 22 22 20 20 25 31 38 44 50 51 47 55 39
16 16 14 13 12 12 11 11 11 11 12 14 14 13 12 13 11 10 7 7 7 6 6 7 8 10 13 15 17 19 21 23 24 26 27 29 30 30 31 30 29 29 31 33 35 37 48 41 59
11 11 13 13 11 10 11 9 9 10 10 10 11 11 10 9 10 10 10 10 9 10 9 10 13 14 16 18 22 24 27 31 32 33 35 35 35 36 38 37 37 37 35 34 34 31 33 27 41
9 9 10 9 8 7 7 7 9 10 10 12 14 14 13 13 13 11 12 14 16 17 18 20 22 24 26 27 28 29 31 32 34 36 37 38 39 40 39 39 39 39 41 40 37 37 32 34 35
10 7 12 10 10 10 11 9 13 14 14 15 16 18 19 19 19 19 20 22 24 26 26 27 28 30 31 32 35 37 39 41 42 43 45 46 45 45 45 45 45 43 43 44 44 42 39 37 33
18 11 11 12 11 13 11 15 13 9 13 16 15 16 16 17 17 20 20 22 23 24 25 26 27 28 30 33 37 40 42 45 47 49 51 53 53 53 52 50 49 48 47 47 46 45 45 43 40
11 10 9 8 8 12 11 14 15 16 17 19 21 20 19 19 19 18 20 20 23 24 26 26 28 29 32 36 39 42 44 48 49 52 54 56 57 58 57 57 55 54 53 51 49 49 49 47 45
12 11 9 10 8 9 10 13 14 18 20 19 18 19 19 19 21 20 20 22 24 25 25 27 29 31 35 38 41 44 48 50 53 56 57 59 59 58 59 62 61 60 60 57 54 53 51 50 51
9 12 13 12 10 8 11 13 12 18 18 13 14 16 17 19 21 23 23 25 28 30 31 34 35 36 40 44 48 52 55 57 59 61 63 64 66 67 64 63 63 64 63 63 61 58 57 55 54
7 7 8 8 11 11 12 15 18 19 15 13 15 17 19 21 24 24 26 28 30 33 34 37 40 43 45 49 51 53 58 63 66 68 68 69 69 70 72 68 68 65 65 64 61 60 61 61 60
9 8 9 10 8 8 9 9 12 14 12 13 17 20 22 24 26 28 32 34 37 39 42 45 48 49 51 52 55 58 59 63 67 71 72 71 71 73 72 73 74 73 68 63 60 63 63 63 61
9 12 11 12 9 9 10 13 13 17 21 21 20 21 21 24 27 32 35 38 42 45 47 51 52 53 56 59 58 62 64 68 69 70 73 72 71 69 70 71 72 72 72 70 62 62 64 63 63
13 12 15 17 14 14 14 16 14 19 24 26 29 29 28 30 34 38 41 45 48 49 51 53 54 57 59 61 62 66 69 72 73 73 73 71 67 66 67 66 67 68 68 69 64 61 62 62 61
19 21 19 19 22 21 22 20 18 27 28 33 36 36 37 39 43 46 48 49 55 52 52 53 54 56 60 64 67 69 72 73 74 74 72 69 66 64 64 64 64 64 64 62 62 60 59 59 59
22 25 27 29 27 26 27 29 30 35 41 46 45 45 44 46 50 51 55 57 58 55 56 56 56 59 63 67 71 73 75 74 74 71 66 64 63 64 63 63 63 62 60 60 59 58 58 60 62
25 25 28 32 36 36 28 32 34 37 47 47 50 52 52 53 55 59 60 61 60 59 56 58 60 63 68 71 74 75 75 73 70 66 62 61 63 64 64 64 64 62 59 57 58 58 59 61 64
24 28 31 36 39 44 42 38 35 42 40 49 53 57 59 59 61 63 64 63 60 57 62 63 63 67 71 72 75 74 73 68 65 63 63 62 65 62 62 63 62 59 59 60 61 62 63 67 71
30 28 30 38 39 44 49 48 39 40 43 47 53 56 60 63 64 66 65 64 64 65 61 64 66 70 72 73 75 72 68 65 63 60 62 65 65 63 62 60 59 59 61 62 65 69 74 78 81
29 30 36 39 43 44 49 52 43 48 50 52 56 61 63 66 66 65 66 65 66 66 65 67 68 72 74 75 75 69 67 65 60 59 62 64 63 60 59 59 60 61 64 71 75 77 78 78 79

GFSSGP_500_spd_006.txt.gz
Wind_Speed
28 26 22 15 12 5 8 8 27 23 34 29 30 25 23 25 31 29 27 27 16 15 17 22 25 26 27 26 29 27 31 25 34 31 30 35 39 40 37 37 38 31 39 37 36 42 37 34 37
24 20 14 4 1 13 9 24 22 29 35 25 15 16 25 30 26 27 27 23 24 21 22 26 29 32 33 34 33 32 31 30 31 36 34 41 42 42 40 40 49 51 30 26 30 31 29 38 40
13 8 3 7 18 7 17 18 27 38 24 19 17 20 19 4 21 27 29 27 29 27 29 32 33 34 33 34 36 38 37 35 29 31 34 35 39 43 41 39 46 43 37 35 32 34 23 34 36
1 3 8 19 3 19 27 33 26 22 19 17 14 18 26 30 24 23 25 29 31 32 33 35 37 40 42 41 40 39 37 31 32 27 29 32 34 32 38 40 39 39 35 36 42 37 28 30 32
7 6 8 1 20 24 24 29 25 16 17 16 15 26 29 21 25 25 28 31 34 36 37 38 39 39 40 39 39 38 35 31 32 31 35 37 39 38 38 43 43 41 40 43 42 45 55 24 21
14 25 10 9 12 9 9 12 21 22 19 12 21 24 24 19 20 24 27 29 29 29 31 33 35 35 34 30 27 27 30 30 31 33 35 35 37 40 34 35 38 40 39 38 42 39 40 41 39
20 13 7 12 18 11 8 10 15 16 17 11 19 27 22 12 29 25 25 27 29 31 33 34 34 31 28 27 27 26 25 26 27 29 30 32 33 35 35 35 37 37 37 38 40 36 33 34 30
18 10 7 1 3 12 8 10 12 14 14 12 13 20 20 20 20 21 24 23 23 23 23 25 25 21 22 25 25 26 26 26 26 28 29 28 31 33 35 36 38 38 39 39 38 38 38 34 40
23 11 5 5 4 11 8 10 9 12 15 13 12 18 22 23 21 21 21 21 20 21 22 24 25 23 25 27 23 24 25 25 27 28 29 31 35 38 38 37 40 42 43 45 45 45 43 43 40
19 9 11 6 7 10 12 8 12 12 16 18 13 18 20 23 22 22 21 24 19 21 23 25 26 26 26 26 25 24 26 28 29 30 31 32 33 36 38 40 41 42 44 46 48 47 44 43 47
12 10 5 4 6 6 6 8 8 9 11 11 12 7 10 10 11 13 15 15 14 15 15 15 17 16 15 15 14 12 13 15 17 19 20 21 22 24 26 28 26 25 29 30 28 32 37 42 48
23 18 20 18 15 13 13 12 12 11 13 14 15 13 13 13 12 11 10 10 12 11 11 11 12 13 14 14 13 14 16 16 17 20 21 23 24 26 29 31 32 31 30 32 35 32 34 37 39
14 13 11 9 9 8 7 6 7 8 9 11 12 13 13 12 12 12 12 13 12 12 13 13 13 16 17 17 19 19 22 23 24 26 28 29 31 34 35 35 35 36 35 34 34 33 33 34 35
10 8 7 5 5 6 7 8 10 9 10 11 11 11 12 13 13 12 13 13 15 15 15 16 17 19 20 21 24 26 27 29 30 32 33 35 35 35 37 39 40 40 40 40 39 37 36 34 33
9 5 5 6 8 9 10 8 7 12 11 12 14 14 15 16 16 16 15 16 18 18 17 19 20 22 24 24 27 29 31 34 35 37 39 40 42 43 43 43 43 45 46 46 45 45 44 41 39
9 11 10 15 13 11 10 12 13 15 13 11 11 12 14 17 18 16 16 19 19 20 20 22 24 24 27 29 32 33 34 37 38 40 43 45 48 50 51 51 50 50 49 47 47 49 49 48 44
14 13 11 12 13 12 12 12 12 14 17 18 15 15 14 12 11 14 18 17 21 21 22 23 23 25 26 29 32 33 36 40 42 44 45 46 48 51 53 54 54 54 53 51 50 50 49 49 48
9 10 12 11 12 14 12 10 9 12 17 18 18 18 15 15 20 15 16 21 21 23 25 27 28 30 32 34 36 39 40 45 46 49 51 50 54 56 59 61 59 58 58 57 57 56 54 51 50
5 5 6 8 10 13 14 13 11 13 15 14 12 16 16 18 19 23 21 22 24 28 29 32 35 36 36 41 43 46 48 49 51 52 55 55 58 60 64 70 71 70 65 60 59 59 59 59 56
7 5 5 9 11 10 15 16 13 15 16 15 14 16 18 19 20 22 25 26 30 33 36 39 42 44 45 46 50 51 53 54 57 59 62 63 63 63 67 67 66 68 69 69 67 64 60 59 58
11 8 8 10 10 13 12 19 21 17 18 17 18 21 21 22 25 25 25 29 32 35 38 42 46 49 51 52 55 56 56 58 60 64 66 67 69 71 70 67 67 68 67 66 67 67 66 62 58
14 13 12 12 15 14 15 11 18 26 21 20 22 23 26 28 27 29 31 34 40 41 41 44 49 49 50 53 54 56 59 60 61 64 68 71 74 74 74 71 68 68 66 64 64 64 63 63 63
14 16 16 15 16 16 17 17 16 24 28 28 30 30 31 35 36 38 39 41 43 45 48 48 51 50 51 56 57 58 58 60 63 67 71 74 73 71 70 67 65 62 64 63 65 62 61 61 62
16 16 20 20 19 17 18 17 12 16 30 34 36 40 43 41 39 38 41 42 45 50 51 52 53 52 54 56 59 60 60 62 67 71 72 70 67 65 64 61 61 59 59 62 63 63 62 60 59
16 20 20 21 24 21 29 29 28 20 30 33 40 45 46 45 47 44 46 48 50 54 54 57 56 56 56 57 59 61 63 66 69 70 71 71 67 62 61 60 60 60 65 64 61 61 60 58 56
19 24 25 27 28 27 23 31 25 31 35 44 50 49 57 56 58 56 55 55 56 58 56 56 62 64 63 64 63 65 64 67 68 70 71 64 61 60 59 57 59 60 64 65 64 61 59 58 54
24 25 29 33 34 38 36 36 31 26 31 43 45 53 60 60 60 60 59 63 61 59 62 66 62 64 63 64 66 65 67 69 72 70 67 62 62 61 57 57 56 62 65 67 65 62 57 54 53
25 28 32 37 40 45 42 40 33 35 35 37 40 45 55 59 61 62 64 65 64 63 66 66 66 64 65 65 64 67 71 74 73 68 64 62 61 59 56 56 62 65 68 67 62 59 57 56 54
31 31 34 38 40 46 49 44 40 35 40 44 49 54 56 61 64 65 64 65 66 66 66 66 66 63 61 64 68 71 72 73 68 65 63 61 59 57 57 60 62 66 64 62 60 59 59 62 64
33 32 34 42 45 46 47 48 35 42 47 53 54 58 60 61 62 62 62 67 65 65 64 65 64 64 67 70 72 72 75 75 67 62 60 58 57 54 55 59 59 59 60 61 61 64 68 72 75

GFSSGP_500_spd_009.txt.gz
Wind_Speed
26 24 16 9 5 12 15 8 12 21 27 33 40 34 32 33 33 29 27 28 29 15 17 14 19 20 23 21 21 24 28 27 25 31 28 30 33 31 34 38 37 37 35 34 46 43 45 48 49
17 8 2 9 16 12 13 14 21 24 28 29 28 30 32 29 25 34 27 24 32 20 14 19 21 24 25 27 30 32 36 34 33 32 32 29 35 36 35 34 37 37 35 41 26 38 29 44 34
6 3 11 21 13 10 20 23 23 25 32 31 32 32 28 24 20 25 26 24 22 20 21 23 27 30 30 32 32 34 37 40 40 37 30 30 30 31 31 35 33 29 33 33 32 29 34 42 31
7 10 23 7 3 10 15 18 24 27 23 24 29 28 26 22 22 18 22 28 30 30 29 28 29 32 34 37 41 44 43 39 34 32 30 27 26 26 33 31 33 33 34 38 38 36 33 38 35
12 21 11 4 7 14 17 20 20 26 28 27 21 24 25 22 22 16 22 23 26 29 31 33 36 38 39 41 38 37 32 29 27 28 31 31 32 33 33 34 31 33 31 31 33 31 29 29 33
23 17 13 8 10 7 14 20 20 21 24 20 19 23 22 22 0 11 18 23 27 29 30 31 33 33 34 36 36 31 29 27 25 22 24 25 26 29 31 30 30 33 31 31 29 30 30 28 26
15 14 14 12 15 14 6 8 10 13 15 12 16 23 17 11 6 15 15 19 19 21 27 29 32 33 34 33 26 26 28 28 27 26 25 25 26 27 28 30 29 30 33 30 31 32 31 30 28
19 18 6 15 13 3 3 3 5 10 9 12 14 15 15 17 19 14 14 17 18 19 21 20 21 21 23 21 21 24 25 25 23 23 23 23 25 25 27 27 28 29 31 35 35 34 32 33 33
18 16 13 5 8 8 3 7 2 10 13 11 17 16 16 18 16 16 18 19 16 18 19 20 20 17 18 19 19 23 24 23 22 23 24 25 25 25 25 26 27 28 29 30 28 30 29 28 28
6 8 2 4 6 8 10 8 9 8 9 12 3 11 9 10 12 11 11 9 6 12 13 16 16 14 14 14 10 10 10 12 13 14 15 17 19 17 17 19 22 23 25 26 26 24 23 24 23
16 9 10 10 9 12 15 13 13 16 15 15 16 15 14 14 14 12 13 14 13 11 8 8 8 9 10 12 13 12 10 10 12 13 17 19 20 23 25 26 28 29 30 31 31 30 27 25 25
19 18 14 12 11 9 9 11 12 14 14 14 16 15 15 14 13 13 13 14 13 12 13 12 11 13 15 16 16 16 19 18 20 23 24 25 27 28 30 32 33 33 33 33 34 36 37 34 30
14 10 8 10 8 8 11 11 11 12 12 12 11 13 13 12 13 12 12 13 13 14 12 15 16 18 18 20 21 21 22 24 25 27 29 30 32 34 35 36 36 37 39 38 39 38 37 38 38
11 9 7 7 6 8 9 8 9 9 8 9 10 10 13 13 13 12 14 15 16 17 16 18 19 21 22 23 26 27 27 28 28 29 32 33 34 36 37 38 39 40 42 42 42 44 44 44 42
6 4 4 4 5 8 9 9 6 4 6 8 9 13 13 13 13 14 12 14 17 17 19 22 21 22 24 25 27 29 31 32 33 34 35 36 37 38 39 40 40 42 42 44 45 46 47 48 49
2 6 12 10 10 8 6 8 11 13 12 9 9 10 11 14 15 12 12 14 17 17 18 20 22 23 26 27 30 31 32 34 34 34 37 39 39 41 43 44 45 47 47 48 47 46 47 49 49
10 10 8 8 8 9 8 7 8 11 16 14 8 10 9 9 9 10 14 18 19 20 21 24 27 29 31 34 36 37 38 41 43 43 44 45 47 49 50 51 52 54 54 54 55 60 57 50 50
9 8 8 9 10 13 12 11 10 12 15 16 13 15 16 16 15 15 15 16 20 23 25 27 29 30 33 35 39 42 43 45 47 50 52 51 52 54 54 56 56 56 59 61 62 61 61 60 55
8 8 8 9 11 10 12 11 12 12 14 15 15 18 20 22 23 24 24 23 24 24 26 31 36 38 38 43 46 47 48 48 50 53 55 55 56 58 58 59 61 62 65 66 65 64 64 64 63
8 9 8 10 9 9 13 13 13 10 13 15 12 14 18 20 23 26 28 28 29 32 37 39 40 43 47 49 48 50 50 50 53 55 57 59 60 60 60 61 65 68 70 71 67 67 65 65 65
14 12 14 13 12 18 15 18 19 18 13 19 21 19 21 25 26 30 34 36 38 38 37 40 45 48 51 51 51 51 51 52 54 57 59 62 62 63 66 68 70 72 71 70 67 63 62 63 62
16 14 13 16 18 17 22 18 22 28 28 26 24 22 28 32 33 34 37 39 40 40 43 45 48 49 52 55 56 54 53 55 57 58 61 62 63 65 68 70 72 72 70 64 60 59 57 60 63
18 17 18 16 17 17 18 19 20 28 31 38 38 28 28 38 41 35 39 43 41 40 38 42 48 49 51 51 53 57 59 58 58 57 59 64 66 66 69 71 72 71 67 62 60 60 59 58 57
17 18 19 22 22 24 23 16 14 26 28 34 40 42 41 47 50 47 46 46 42 38 42 46 48 50 50 52 54 55 58 58 59 59 60 62 66 68 69 69 67 63 60 59 60 59 58 60 61
17 18 20 21 20 20 27 27 25 25 19 27 35 39 44 48 51 52 53 52 52 51 53 53 55 59 59 61 61 62 60 59 58 58 61 64 64 64 65 65 63 61 60 59 56 60 64 62 67
20 22 23 23 26 26 20 23 20 27 31 35 39 39 46 47 54 57 60 60 61 58 58 59 61 64 62 60 63 64 62 62 64 66 66 66 67 65 63 63 63 63 59 56 57 63 65 64 66
22 23 28 30 31 35 32 24 19 26 33 30 36 41 49 49 55 60 62 63 62 62 61 63 65 65 62 60 61 61 62 65 66 66 67 69 68 63 60 59 60 62 64 65 64 63 63 66 66
21 26 30 34 37 42 41 37 30 29 28 26 36 41 49 52 56 57 57 57 60 59 61 64 65 63 63 62 61 63 66 67 68 68 69 70 64 60 58 59 61 62 62 63 63 62 63 65 66
29 31 36 38 38 43 49 47 36 36 44 42 45 51 58 56 59 59 59 58 60 63 62 61 62 62 62 62 65 68 69 71 71 71 70 66 59 59 58 60 59 58 57 59 60 63 63 62 61
33 31 31 40 42 42 49 50 38 42 40 47 52 52 53 54 56 56 54 58 59 59 59 61 62 64 66 67 70 72 73 73 72 71 66 60 59 59 57 57 56 55 56 57 58 61 61 62 64

GFSSGP_500_spd_012.txt.gz
Wind_Speed
26 23 16 10 15 24 30 25 23 25 21 22 23 28 26 30 29 32 35 37 34 29 22 10 13 16 20 21 17 20 19 26 26 32 28 26 31 32 33 31 31 36 34 32 35 33 32 30 31
20 14 11 19 24 27 29 24 17 19 21 23 27 31 35 37 40 40 38 40 36 32 25 13 14 18 22 23 24 26 29 30 32 35 36 37 35 33 31 35 36 31 30 32 28 29 30 28 30
10 12 20 28 29 28 25 24 14 20 23 25 28 31 34 36 40 36 29 33 33 18 14 16 17 22 25 29 29 32 32 36 38 41 40 38 34 30 30 31 32 27 30 31 31 31 33 31 32
12 19 25 28 25 17 13 16 20 24 26 28 28 27 29 33 32 24 23 27 25 26 26 26 25 27 29 32 35 38 40 43 42 35 31 29 30 29 29 27 28 31 33 35 34 36 34 27 28
21 26 24 19 18 4 8 15 19 20 25 28 29 26 25 19 20 24 25 22 24 25 26 28 29 32 35 37 39 40 39 37 34 29 28 26 28 31 31 31 33 36 34 34 30 32 31 28 27
24 24 20 13 7 3 10 13 15 17 16 15 15 16 17 13 11 6 9 16 19 20 20 24 26 28 31 32 33 31 31 28 27 28 29 28 26 26 27 27 27 28 28 29 29 28 27 27 28
22 18 15 12 5 3 12 8 8 10 11 10 12 13 14 12 8 6 12 13 15 16 18 21 22 25 26 24 23 24 24 22 23 24 24 23 22 23 23 22 23 24 24 27 27 26 28 26 25
15 12 6 8 6 2 4 7 7 8 9 13 13 13 12 13 11 14 15 15 12 15 18 18 19 19 19 19 21 24 25 23 26 24 23 23 23 23 23 23 21 20 18 18 17 15 18 18 19
2 7 13 10 6 5 3 0 6 10 7 7 8 7 7 8 7 6 7 3 7 13 12 12 15 15 14 12 14 17 17 18 18 19 20 18 16 14 13 14 15 17 18 19 20 17 15 18 17
10 12 12 11 15 12 18 14 12 15 14 14 15 13 13 13 13 13 16 16 10 11 14 11 7 4 5 6 7 8 8 9 9 9 11 14 17 19 20 20 22 23 25 27 27 27 24 22 20
19 21 16 14 13 16 16 12 13 13 12 13 12 12 13 14 13 14 14 11 8 10 11 12 14 14 14 15 15 17 17 18 18 20 21 22 23 24 26 27 29 29 30 30 32 31 31 31 29
16 14 14 11 10 12 11 11 10 10 11 11 10 10 11 11 13 12 11 12 11 11 14 13 14 16 18 19 18 20 21 22 24 25 26 28 29 29 30 30 32 33 34 34 34 34 34 34 34
10 10 9 10 9 8 8 8 10 11 10 11 12 11 11 11 11 13 13 13 12 12 14 18 18 19 21 24 24 24 25 26 28 29 29 30 32 32 32 33 33 34 36 35 35 35 36 37 37
11 8 7 6 4 5 7 8 7 10 11 10 11 13 11 12 13 12 13 15 15 14 15 18 19 21 22 24 25 25 26 27 29 30 31 31 33 34 35 35 36 37 37 37 37 37 37 38 40
13 7 5 5 4 4 6 5 4 4 7 10 10 11 13 14 15 15 15 17 18 18 19 21 22 22 24 25 28 29 30 32 33 34 35 37 38 38 39 40 41 41 41 42 42 44 44 43 41
4 5 5 5 4 3 5 5 5 3 4 7 7 9 11 14 15 18 19 19 18 17 17 18 21 24 26 28 30 32 34 36 39 41 44 45 46 47 46 45 46 47 47 48 49 49 50 51 51
1 6 7 7 6 3 3 5 8 9 9 11 9 6 6 6 9 11 9 12 16 18 20 21 22 24 29 32 36 37 39 43 45 45 47 49 49 51 52 51 52 54 53 53 53 54 53 55 57
6 5 5 6 5 6 4 6 7 10 12 11 13 11 11 13 14 17 18 19 21 24 27 29 32 37 38 37 40 44 45 45 46 48 49 50 51 54 55 55 56 56 57 56 56 57 58 61 63
8 9 8 9 7 7 10 11 9 13 13 15 15 14 16 19 21 23 25 28 30 32 36 39 42 42 43 45 47 49 51 52 52 54 53 52 52 55 57 58 60 61 60 59 61 62 62 64 67
8 11 12 14 16 12 14 16 17 14 13 18 21 23 26 25 26 28 28 31 35 33 35 40 43 46 47 50 51 54 55 54 54 54 56 58 58 58 58 60 61 60 58 59 62 63 64 65 66
12 11 13 13 15 21 19 18 17 17 18 19 19 19 21 22 28 33 32 32 31 35 36 37 39 45 50 51 53 54 54 53 54 58 58 58 60 61 61 61 61 63 62 61 63 65 66 66 66
14 15 14 13 14 18 18 18 19 20 21 23 26 24 22 22 29 33 33 32 32 34 35 36 38 44 49 51 55 57 59 59 58 57 58 60 60 61 61 62 62 62 65 66 67 68 68 63 61
14 16 17 16 18 18 18 16 20 26 28 30 33 34 32 33 33 34 36 39 42 42 43 44 45 47 51 49 50 56 57 58 60 58 58 59 59 58 60 63 65 66 65 66 69 72 70 65 63
16 14 18 18 21 19 19 17 24 29 33 39 42 40 44 45 45 43 44 47 49 49 49 47 48 51 52 54 54 55 57 56 57 56 57 58 60 60 60 62 63 65 68 69 70 69 68 69 69
14 14 17 20 19 21 25 21 28 30 35 36 36 42 46 44 46 47 49 53 54 56 54 53 53 55 57 60 60 60 59 60 61 61 63 65 68 68 67 66 66 66 67 65 66 68 67 70 72
16 16 17 19 23 20 21 20 23 29 30 33 39 44 43 44 49 49 52 53 55 56 60 59 58 60 62 61 61 61 62 62 62 64 67 69 69 69 69 67 67 64 61 64 67 67 69 70 71
17 19 22 25 30 31 26 19 16 28 23 35 37 43 44 47 47 49 50 50 52 58 59 59 59 59 59 60 62 63 63 65 67 68 70 68 69 69 68 66 65 62 60 65 67 68 67 68 68
21 22 31 34 35 35 33 28 26 24 29 31 36 44 45 45 46 46 49 53 56 54 54 53 56 58 61 63 65 66 68 70 71 71 71 71 72 71 68 63 61 62 65 67 66 65 68 68 66
26 29 33 36 36 39 44 37 31 34 42 45 45 43 44 43 44 49 53 49 50 54 54 56 58 60 63 65 69 71 73 74 73 74 75 73 72 70 65 62 62 62 64 67 68 68 67 66 64
27 25 30 38 40 39 44 46 40 43 43 47 44 40 41 45 49 50 48 50 54 56 60 60 61 64 69 70 72 72 74 76 77 76 73 71 70 67 63 60 59 59 61 61 62 63 62 61 61

GFSSGP_500_spd_018.txt.gz
Wind_Speed
26 28 31 31 29 30 29 26 27 27 26 25 25 25 22 20 20 21 23 23 27 29 32 33 24 24 26 26 32 24 24 33 27 22 23 24 29 29 31 30 32 35 34 29 24 24 25 27 24
30 31 31 32 28 26 26 27 27 27 26 24 21 19 16 18 20 22 25 28 31 36 36 30 25 21 26 29 24 24 24 26 33 30 30 32 33 32 35 30 30 32 28 25 25 25 25 23 26
32 31 31 26 23 22 24 26 26 24 23 19 16 17 19 21 22 23 27 29 29 24 21 18 16 15 18 17 20 25 29 31 33 34 34 36 36 35 31 28 26 25 24 27 25 26 26 28 28
30 29 24 19 19 19 22 25 23 24 24 22 18 20 21 23 26 28 27 23 21 19 17 15 16 19 23 27 27 29 32 33 34 32 31 29 30 31 28 28 26 26 24 26 28 30 30 31 33
21 18 20 20 20 16 14 15 17 19 19 18 16 14 15 14 16 18 17 19 17 15 17 18 21 24 26 27 28 27 26 27 25 26 25 24 23 24 25 27 28 27 26 24 26 28 29 31 30
15 15 14 13 10 8 11 11 8 8 9 10 10 11 11 11 11 12 14 10 14 15 16 20 22 21 19 19 21 21 23 23 23 23 23 22 22 23 23 22 22 23 23 23 23 24 25 26 26
4 7 4 7 8 9 7 6 4 6 7 9 10 10 12 13 14 13 13 15 17 17 17 18 19 20 21 21 21 19 16 16 16 16 17 18 20 20 22 21 22 23 24 24 23 21 17 16 18
7 3 1 6 9 9 3 7 3 3 5 5 4 5 6 7 10 10 7 9 10 8 9 11 12 11 11 9 7 10 11 11 12 13 13 13 13 13 14 15 16 16 16 16 16 16 16 16 17
5 3 7 8 7 5 14 15 15 12 12 11 13 12 11 11 9 10 11 12 10 9 8 6 6 6 7 9 12 14 15 17 18 19 19 18 19 21 22 23 22 22 21 21 22 22 23 23 23
5 9 8 12 14 14 14 11 11 11 11 11 11 10 8 7 7 8 9 9 7 7 8 10 12 13 14 16 17 18 18 18 19 20 21 21 22 23 25 26 26 26 27 26 27 27 26 26 26
15 16 19 18 15 12 12 11 9 8 9 9 8 8 7 6 6 7 9 8 7 6 7 10 12 13 13 13 14 16 18 19 21 22 23 23 23 24 25 26 27 27 28 28 28 27 28 28 29
17 16 14 12 12 12 10 10 9 6 5 6 7 7 7 6 4 3 6 9 12 14 14 12 12 13 14 16 18 19 21 22 24 26 27 27 29 29 31 33 34 36 38 38 37 36 34 33 32
14 14 13 11 10 9 9 7 7 4 4 5 5 6 7 7 6 7 7 7 7 10 13 15 16 16 17 18 18 20 22 24 25 27 29 30 32 35 36 37 38 38 39 40 41 42 42 41 41
7 8 6 7 7 5 5 3 3 6 6 6 5 6 6 8 9 9 10 11 12 12 14 17 20 21 22 23 24 26 28 30 33 36 37 37 37 39 40 41 43 43 44 44 43 42 43 44 44
5 7 3 2 3 3 3 5 5 4 4 6 8 8 8 10 12 13 15 17 20 22 24 25 24 25 27 28 30 33 35 37 40 42 43 43 44 45 46 46 45 46 46 45 44 45 47 47 47
1 1 1 2 3 5 5 6 2 3 7 8 8 9 10 13 15 15 14 14 15 19 21 23 26 29 31 33 35 37 39 42 44 44 44 46 45 46 46 48 48 47 47 47 48 50 52 53 53
3 4 5 7 8 7 6 7 2 6 10 10 11 12 12 14 16 17 18 20 20 22 26 29 31 32 34 38 40 42 44 45 46 47 49 50 50 51 52 52 51 52 54 54 56 56 56 55 55
6 8 8 7 7 5 3 6 8 11 13 15 15 16 17 19 22 23 25 28 29 29 32 33 36 38 39 40 41 41 43 45 48 50 51 53 53 54 55 56 58 59 59 58 59 58 58 59 59
7 9 8 7 4 7 8 11 13 14 17 18 19 21 22 24 24 26 28 29 31 32 33 33 38 40 41 41 45 48 50 51 53 54 55 56 56 56 57 58 59 61 61 60 60 59 59 59 58
7 9 9 10 7 7 13 14 14 17 19 20 22 23 23 24 27 27 27 28 30 31 32 35 40 43 45 47 52 55 55 57 57 57 56 58 60 62 63 63 62 61 61 61 62 61 59 56 55
10 10 11 11 14 12 15 17 18 17 18 18 20 23 25 27 27 28 29 29 31 34 36 39 42 46 49 52 56 55 56 58 59 59 56 56 58 59 60 61 62 63 64 64 65 65 65 63 62
14 16 15 16 15 14 17 21 20 20 21 25 27 30 30 31 30 32 30 32 34 34 36 41 44 46 50 54 56 56 56 57 56 55 56 57 58 58 59 61 63 64 66 67 68 69 68 68 67
16 18 19 18 15 15 15 17 20 22 25 29 33 34 34 35 34 36 38 38 40 41 44 48 50 51 53 53 56 57 56 54 55 54 56 58 60 62 63 65 67 68 69 69 68 69 68 69 67
18 19 20 18 16 17 17 19 20 26 33 37 37 38 39 39 41 42 44 45 46 46 48 50 50 50 52 54 55 55 56 58 59 62 63 64 65 67 69 72 74 75 75 74 74 72 70 68 64
21 21 21 19 18 18 19 23 26 32 37 38 38 39 40 42 43 45 47 49 50 50 50 52 54 57 57 57 63 66 64 63 67 69 72 73 74 75 74 76 80 81 79 77 75 72 70 68 65
22 20 21 22 22 22 25 28 35 35 37 39 41 42 43 45 47 49 50 51 51 52 54 56 57 57 58 61 67 66 65 65 69 72 75 77 78 79 82 82 79 78 77 76 72 68 66 65 63
19 20 20 23 26 27 29 27 35 34 39 40 40 41 42 44 45 47 47 47 49 51 53 56 58 59 61 64 69 68 69 70 72 79 80 80 81 82 83 82 81 79 76 73 70 66 66 62 60
19 21 24 27 31 33 33 24 25 37 39 38 35 37 38 39 40 42 43 45 48 53 54 56 58 60 62 65 71 74 74 77 81 84 83 81 82 85 87 86 87 84 77 69 64 64 61 57 59
23 25 28 30 31 34 37 28 29 31 32 33 34 35 37 41 42 41 43 47 52 52 55 60 63 64 67 70 71 71 73 77 80 84 84 84 85 85 86 89 83 78 72 59 60 57 56 58 55
25 27 30 33 35 33 35 32 34 37 33 33 35 40 43 42 43 46 50 53 58 60 61 63 65 66 69 71 73 78 80 83 87 88 89 92 89 88 85 80 76 61 55 54 53 52 53 51 51

GFSSGP_500_spd_021.txt.gz
Wind_Speed
24 25 25 26 23 24 25 24 24 23 22 21 22 22 22 21 21 20 20 22 25 26 30 32 32 32 31 27 22 22 23 28 25 24 24 24 25 25 24 26 28 29 28 27 25 21 22 21 23
24 25 27 25 23 25 24 24 26 24 22 22 21 20 19 21 22 21 21 24 26 27 26 22 20 20 17 16 19 20 23 27 25 28 27 29 30 27 25 26 26 25 25 23 20 23 24 23 26
26 27 24 23 22 22 21 21 21 22 21 21 20 20 21 21 23 24 25 26 25 20 20 19 16 13 12 22 23 26 26 27 29 30 30 28 26 26 27 27 26 23 22 23 22 23 25 27 28
26 23 22 20 19 19 18 16 16 17 18 19 20 21 21 19 18 19 17 17 17 19 18 16 13 17 20 24 24 23 23 23 24 24 24 24 22 22 21 22 22 23 23 24 23 22 22 23 25
19 19 18 14 10 9 10 12 15 14 15 17 15 13 11 10 10 9 11 14 15 15 16 18 18 19 19 18 17 17 18 19 19 19 19 19 19 19 20 21 21 20 19 18 19 20 21 22 23
13 9 6 7 7 7 7 8 9 9 8 7 7 7 8 9 11 11 11 13 12 15 16 15 15 15 16 17 15 13 12 11 12 13 12 12 13 15 15 15 17 17 18 18 20 21 22 22 21
3 2 3 4 5 2 2 5 4 4 3 4 4 4 5 7 8 8 10 10 10 8 8 9 9 10 11 8 8 7 9 10 13 16 16 15 13 13 14 14 15 15 15 14 14 15 15 15 15
8 7 5 2 2 2 2 4 8 14 16 14 9 10 11 11 12 14 13 11 8 7 7 8 8 9 9 8 10 12 13 15 16 16 17 17 17 17 18 19 20 20 20 19 19 19 20 20 20
7 4 5 8 7 9 16 16 13 12 11 11 10 8 7 7 8 9 8 8 6 6 7 8 9 10 10 11 12 14 15 15 16 15 16 16 17 18 20 21 21 22 22 23 23 24 24 25 24
4 6 8 9 13 17 13 12 13 13 11 11 10 8 7 7 8 8 8 7 7 7 8 10 11 12 14 16 16 16 16 16 15 17 17 17 17 18 19 19 20 21 23 24 24 26 26 27 28
9 11 12 17 15 14 12 12 11 11 9 9 7 6 5 6 7 8 6 5 4 4 5 7 10 11 13 14 15 16 17 17 18 20 21 22 23 25 26 27 28 28 27 27 28 29 29 29 30
18 17 17 15 13 11 10 8 8 8 7 6 4 3 1 3 4 5 6 6 7 7 8 9 11 13 15 17 18 20 21 22 23 23 25 27 30 33 34 34 35 35 35 34 34 33 33 33 34
15 13 12 11 11 9 7 5 2 3 3 4 3 1 2 6 6 8 9 10 10 11 13 15 16 17 18 19 21 23 26 28 30 32 34 36 39 38 38 39 40 41 41 41 40 39 38 38 37
10 10 11 12 13 11 10 6 3 1 2 2 1 1 5 8 8 10 11 13 13 14 16 18 21 23 25 26 28 30 33 35 36 36 37 38 38 38 38 40 41 42 42 42 43 43 42 40 40
11 9 10 11 11 8 3 2 1 5 8 8 8 8 8 8 11 13 16 18 21 24 25 25 26 27 28 28 30 31 32 34 37 37 37 37 38 39 40 41 42 42 42 43 43 42 43 44 44
3 2 2 1 1 2 3 4 2 8 11 11 12 13 14 14 14 16 19 22 25 26 26 26 28 31 32 31 34 36 38 39 39 40 42 43 44 45 44 44 44 45 45 46 48 49 49 50 50
1 3 5 6 6 7 7 4 5 9 11 12 14 16 17 18 17 19 21 24 26 29 27 27 31 35 37 39 40 41 42 43 43 45 46 47 49 51 50 49 49 49 49 50 51 51 51 50 50
3 4 6 7 9 7 7 7 6 10 12 14 16 18 19 18 18 19 22 26 30 32 32 35 38 39 40 40 41 43 45 47 49 52 51 52 53 52 51 51 51 52 53 54 54 54 53 52 52
4 7 7 7 8 11 10 10 12 14 14 15 15 15 17 19 21 23 27 28 29 32 33 34 38 40 41 41 43 47 50 52 53 56 54 54 55 56 57 57 57 58 58 58 57 57 57 57 57
5 7 7 8 6 9 11 11 12 13 15 18 19 19 19 21 25 29 30 29 31 31 32 37 40 40 40 44 49 51 51 53 55 55 55 56 56 56 56 58 59 59 60 61 61 61 62 62 61
9 9 9 11 13 13 15 15 14 16 18 21 21 22 23 25 29 31 31 32 34 34 36 39 42 43 45 48 50 50 52 54 55 55 56 58 58 60 59 58 60 62 63 64 65 65 66 67 66
13 14 13 14 15 16 17 17 17 18 19 19 22 25 27 30 30 31 33 33 34 36 38 42 44 45 47 48 48 50 53 55 56 55 57 59 60 61 61 63 64 64 66 67 69 69 71 70 72
16 17 18 18 17 18 17 18 18 18 19 22 27 30 31 31 33 34 36 38 39 42 44 45 46 46 46 48 51 52 55 56 58 59 62 62 62 63 66 68 69 71 72 72 72 73 72 74 71
19 20 21 20 18 18 19 20 20 22 25 30 33 34 32 34 35 38 40 42 44 45 44 44 45 47 50 53 56 58 62 64 66 67 69 71 73 73 73 74 76 78 80 80 79 78 77 73 71
20 19 22 23 21 19 20 22 24 26 31 35 37 37 37 39 40 42 44 45 45 46 48 50 51 53 57 60 62 64 66 69 72 73 74 76 79 79 79 80 82 83 82 82 80 80 80 79 77
21 20 19 21 22 22 23 27 29 31 34 36 37 37 39 41 41 43 43 44 46 49 51 52 53 57 62 65 66 68 71 73 74 74 77 78 79 79 83 86 86 86 84 83 80 78 81 81 78
17 17 19 21 22 22 23 29 30 32 34 36 37 38 39 40 41 40 43 46 49 50 52 55 59 63 65 67 68 70 72 73 74 75 77 78 82 84 84 84 86 87 88 86 83 84 81 77 75
19 20 22 24 26 27 25 23 30 30 33 37 37 38 39 37 38 41 46 49 51 54 54 57 60 63 66 70 71 72 74 76 77 79 82 84 84 86 89 91 91 88 86 83 81 77 71 66 64
22 23 25 26 28 31 31 20 29 32 34 35 35 34 37 39 43 47 49 50 53 55 60 63 65 68 69 70 72 74 75 77 79 80 82 85 89 91 91 91 87 82 75 69 67 59 54 52 48
24 25 27 29 30 31 34 26 30 36 34 32 33 37 40 46 49 49 51 54 58 62 64 67 69 69 71 73 76 77 78 78 80 85 88 89 90 90 91 85 76 66 57 51 49 46 48 46 47

GFSSGP_500_spd_024.txt.gz
Wind_Speed
25 25 23 21 20 21 22 22 22 21 21 21 21 21 22 24 26 24 24 25 26 26 26 25 25 24 23 23 21 20 18 18 18 17 18 19 22 24 25 23 24 23 23 22 20 23 21 21 18
24 23 22 22 20 23 24 22 21 22 21 19 19 21 21 22 22 22 23 25 25 25 23 19 21 22 23 22 20 18 20 20 20 19 20 22 24 25 25 24 23 22 22 21 19 19 22 21 20
23 23 22 22 20 22 23 21 21 19 18 19 20 20 20 20 21 21 21 21 21 19 18 19 19 19 17 16 18 19 18 17 15 15 15 16 16 16 16 17 15 15 16 18 21 21 19 20 22
23 21 22 20 19 19 17 16 16 17 17 18 18 18 18 18 15 9 8 9 12 13 14 13 14 13 14 15 15 14 14 15 15 15 15 13 11 11 12 14 15 14 14 15 15 15 16 17 19
16 18 16 16 16 13 11 12 11 12 12 11 12 11 8 7 8 9 9 9 9 9 13 12 11 12 13 13 12 11 11 11 11 12 13 11 10 10 11 12 13 13 14 15 16 15 15 17 17
11 12 10 10 8 9 8 6 6 6 8 7 7 7 7 7 9 10 9 8 6 7 9 10 12 12 10 7 7 8 9 9 11 12 12 12 11 10 10 11 12 12 12 12 12 11 11 11 12
9 9 8 6 5 3 3 3 5 5 6 6 3 1 1 2 5 3 1 1 2 3 5 8 7 6 8 8 9 9 11 11 12 12 12 11 12 12 13 14 15 15 15 15 16 16 16 15 15
10 9 5 4 6 5 3 4 9 11 10 9 10 10 10 10 9 13 13 12 10 8 4 2 3 4 4 5 6 7 8 9 10 11 11 11 11 13 13 14 15 16 17 17 18 19 20 21 20
11 7 6 9 10 9 17 16 12 11 12 12 10 10 9 8 8 9 9 7 5 3 1 2 3 4 4 4 6 8 10 11 12 13 13 13 14 14 15 16 17 18 19 20 20 21 22 23 24
10 8 10 14 18 17 13 13 13 12 11 10 9 10 8 6 6 5 3 2 1 1 3 4 6 7 10 12 14 15 16 17 17 18 18 18 18 19 20 21 22 22 23 25 26 26 25 26 27
13 13 17 17 17 14 14 13 11 10 9 8 6 5 5 5 2 1 2 4 4 5 7 9 11 14 15 16 18 18 18 20 21 22 23 24 26 28 30 32 32 30 30 31 31 31 32 32 31
15 19 17 15 13 10 11 10 9 7 6 5 2 1 1 2 3 5 7 9 10 12 14 15 16 17 16 18 20 22 23 25 26 28 30 31 32 33 34 34 34 34 34 35 36 37 37 37 37
15 13 14 13 12 10 8 7 5 4 5 4 4 5 6 6 6 8 9 11 14 15 16 17 17 17 19 21 24 27 29 31 32 33 33 33 34 33 33 34 35 37 37 37 37 37 37 38 39
13 14 12 11 12 10 8 6 5 3 4 4 5 7 9 9 9 10 10 12 15 18 19 20 20 21 23 25 28 32 33 33 34 35 36 36 35 37 39 40 40 40 41 41 41 40 40 40 40
10 9 8 9 10 10 7 5 5 8 9 7 6 8 10 12 13 13 13 15 18 20 23 24 25 26 28 31 33 34 34 35 36 37 38 39 40 42 44 43 43 43 41 40 41 41 42 42 43
5 4 7 10 10 8 6 5 6 9 9 10 12 12 13 14 15 16 18 19 21 23 25 26 27 28 30 33 34 36 38 39 39 39 42 44 46 49 47 45 45 44 42 41 42 42 42 43 44
4 3 2 3 4 5 5 5 7 11 12 11 12 14 14 15 16 18 20 22 24 27 29 31 33 35 35 37 39 42 42 41 42 45 46 47 49 49 48 47 47 47 47 47 49 49 48 48 47
3 2 3 5 7 8 10 7 9 10 11 14 15 15 14 15 17 20 22 23 27 31 35 36 38 35 37 40 41 42 42 45 47 49 50 51 52 51 51 51 53 55 56 57 58 56 55 53 53
2 3 4 6 9 12 12 13 13 16 16 15 15 14 15 16 20 23 24 28 32 34 36 38 40 39 40 41 43 45 47 49 51 52 52 53 54 56 56 57 57 59 61 62 62 62 62 62 61
3 5 7 7 8 11 11 14 15 16 16 17 18 17 18 20 24 27 30 33 34 36 37 39 40 41 43 45 46 48 50 51 52 51 53 55 57 58 59 61 62 63 63 64 64 64 66 67 65
7 9 10 11 12 14 16 18 18 17 18 19 19 18 19 22 26 30 33 35 36 37 38 40 41 44 46 48 49 49 50 50 51 54 58 60 61 62 64 65 68 69 67 67 67 68 69 69 70
12 12 13 13 15 16 16 21 18 18 19 20 18 20 23 27 30 31 32 34 36 38 40 41 43 45 45 46 48 50 51 53 54 57 61 64 63 65 67 68 69 71 72 73 74 73 73 73 73
16 16 16 17 17 18 17 18 18 20 21 22 23 26 30 33 33 32 35 37 40 42 43 44 43 44 46 49 50 51 55 60 63 65 65 68 71 73 75 75 77 77 77 77 77 76 76 79 79
18 19 20 22 22 20 18 20 22 22 24 26 28 32 34 35 35 35 38 41 41 41 41 42 45 48 51 53 54 56 59 62 67 70 72 74 76 78 80 81 80 79 78 78 79 81 81 80 81
21 20 21 21 22 22 20 22 24 23 27 30 33 35 36 35 38 40 41 42 43 43 44 48 51 54 56 58 61 64 68 69 71 74 76 77 78 79 80 81 82 83 84 84 82 81 83 83 85
17 17 18 19 20 22 22 25 24 27 29 32 34 36 37 38 39 40 42 41 43 45 49 52 54 55 59 62 65 68 69 71 73 74 76 77 78 79 81 83 84 84 85 87 86 86 87 88 87
14 15 17 18 19 21 23 25 27 28 31 31 33 36 38 39 39 38 40 43 45 50 53 53 55 58 60 63 66 67 69 70 73 76 79 80 81 82 82 84 87 88 90 91 92 91 87 86 84
17 18 20 20 23 23 24 26 28 29 32 34 35 36 39 37 38 42 45 47 50 51 53 55 58 59 61 63 66 70 73 75 77 78 79 80 80 82 86 88 90 91 91 88 83 77 72 68 68
20 22 23 25 26 28 28 25 28 33 36 37 38 34 36 38 42 44 46 48 52 54 57 59 61 64 67 69 69 73 76 77 78 78 79 81 85 86 89 87 88 81 74 69 64 59 55 53 52
25 26 28 29 32 33 33 28 30 37 40 38 35 34 38 41 45 47 50 54 55 57 60 64 66 69 72 72 73 77 77 79 78 79 82 86 88 91 90 82 72 67 60 54 49 47 45 46 48

GFSSGP_500_spd_027.txt.gz
Wind_Speed
19 20 18 13 14 13 23 16 24 22 25 24 23 19 20 21 24 19 24 25 26 26 26 27 25 19 20 18 15 10 13 14 13 14 15 15 16 18 17 19 19 18 19 19 19 19 18 18 18
20 19 17 14 11 9 14 21 13 23 23 21 20 19 20 21 21 22 22 23 23 25 21 15 14 14 11 8 7 12 13 13 13 13 13 14 14 12 12 13 13 14 14 15 16 16 18 19 18
19 18 18 12 6 11 20 10 23 21 21 19 19 19 19 19 19 20 22 22 16 12 10 10 11 11 10 11 13 13 13 14 14 14 14 13 12 10 9 9 9 11 12 13 14 14 16 18 19
18 17 16 8 16 25 22 20 20 18 19 18 17 16 15 16 17 16 14 10 9 7 9 10 10 10 10 10 10 10 10 10 10 12 14 13 10 9 9 10 11 11 12 12 13 13 13 14 15
15 12 4 12 28 22 20 19 14 9 15 13 9 11 11 12 11 10 10 8 7 7 7 8 9 8 7 7 6 7 8 9 11 12 12 12 11 9 9 8 9 9 9 9 8 8 9 11 13
14 8 13 11 15 15 16 13 10 10 11 9 10 10 10 8 8 8 7 5 4 3 5 6 7 9 9 8 6 6 6 6 8 8 9 9 9 9 9 10 10 11 11 13 13 12 13 12 12
11 10 12 19 10 11 9 7 7 9 10 11 8 4 0 5 6 4 4 4 8 9 8 7 7 6 5 4 4 5 6 8 9 9 8 8 9 9 10 10 11 12 13 15 15 15 15 15 15
16 20 15 7 6 8 7 7 6 8 9 8 7 9 9 8 14 17 15 12 9 7 5 4 2 2 3 5 7 8 9 10 11 11 12 12 12 13 13 14 15 16 17 17 17 17 18 19 20
10 10 10 9 8 8 8 12 11 9 13 12 11 10 10 10 10 10 8 6 4 3 2 3 4 6 8 9 11 12 13 15 16 17 18 19 20 20 20 21 23 24 26 27 27 27 25 23 22
16 9 12 14 11 15 15 14 12 13 13 13 12 10 9 7 5 4 3 3 3 5 7 8 9 10 12 14 16 18 19 19 20 20 21 22 23 25 26 27 29 30 30 30 30 30 31 31 31
16 14 16 19 21 17 14 13 12 11 10 11 10 9 6 4 1 2 4 6 7 9 10 12 13 15 17 18 20 20 21 22 24 26 27 28 29 29 30 30 30 31 31 32 31 33 35 35 35
16 20 21 20 16 13 12 10 9 7 6 4 4 2 1 2 5 6 6 7 9 12 14 16 17 18 21 22 22 23 24 27 30 32 32 32 33 34 33 33 33 34 37 37 37 37 37 37 36
18 19 16 14 12 11 10 10 8 8 7 5 5 5 6 7 7 7 9 10 12 14 16 18 19 21 23 25 26 28 30 32 35 36 36 35 36 35 35 35 37 39 41 41 39 40 40 38 39
12 11 9 8 8 9 9 7 5 5 5 5 5 8 10 9 9 10 12 13 14 15 18 20 23 26 28 30 32 33 34 36 38 38 39 40 40 39 40 41 42 45 46 42 42 42 41 40 39
7 7 6 6 8 8 5 5 6 7 8 7 8 8 9 9 11 12 13 16 16 18 22 24 26 29 31 32 33 34 36 37 40 42 42 41 41 43 44 44 45 46 43 42 41 41 41 40 41
7 4 3 6 9 7 4 6 9 12 11 6 9 10 11 15 16 18 18 19 21 23 24 27 31 33 33 34 33 35 37 39 41 41 42 43 45 45 45 46 45 44 45 44 45 45 46 46 47
4 2 6 6 9 9 7 10 12 14 13 12 14 14 16 18 18 21 22 23 24 26 29 33 35 35 35 37 39 39 42 43 45 46 47 46 46 46 47 48 49 49 51 53 53 53 54 53 52
10 7 6 8 7 7 8 11 11 13 13 14 16 17 17 19 22 22 23 24 26 29 33 36 38 40 41 43 43 44 46 47 49 50 50 49 50 51 53 55 57 58 59 60 60 62 62 64 63
8 7 8 9 10 11 12 16 15 17 19 20 19 19 20 20 22 23 25 27 31 33 37 39 42 43 45 46 47 49 50 52 53 53 52 53 53 55 57 60 62 62 63 64 65 65 66 67 68
9 8 9 9 9 12 13 16 17 18 20 20 22 23 22 22 23 24 27 31 35 38 41 43 44 46 47 49 50 51 53 54 54 54 54 57 58 58 60 63 67 67 66 67 69 70 71 71 71
11 11 10 12 12 13 15 22 22 22 23 23 23 23 24 23 25 27 31 35 38 41 42 44 46 47 48 51 52 53 54 52 53 55 56 57 59 64 68 69 69 69 71 74 75 76 76 76 74
15 13 14 14 14 12 12 10 27 22 23 24 24 24 25 26 29 33 35 38 40 41 43 46 48 49 49 51 50 50 52 53 56 58 59 61 64 64 68 71 73 74 76 78 78 78 79 79 77
18 17 17 18 19 19 19 16 31 27 25 25 25 26 27 29 34 37 40 41 41 43 45 48 48 48 47 48 50 53 54 56 58 62 65 66 68 70 72 73 74 75 77 78 79 80 81 81 81
19 20 20 21 21 22 18 17 22 32 26 27 27 29 32 35 39 41 42 42 44 44 44 46 44 46 48 51 54 55 57 60 64 66 68 71 73 73 73 74 76 78 80 81 81 81 82 81 83
19 20 19 21 21 15 20 18 29 32 29 30 31 33 37 40 42 42 43 44 45 44 43 44 47 50 53 54 57 60 63 66 69 71 73 73 73 73 73 74 75 77 79 80 81 83 84 85 85
10 12 12 14 17 14 23 21 30 25 29 32 34 36 39 39 41 43 44 44 42 44 46 48 50 52 56 60 62 64 67 69 71 74 78 77 76 75 78 79 80 81 80 83 85 84 86 85 86
14 15 16 18 19 21 20 29 30 31 32 33 35 37 38 40 42 44 41 42 43 45 47 49 53 57 59 60 64 66 66 67 68 72 74 75 78 81 84 88 87 85 84 84 84 82 77 76 73
17 18 20 21 24 25 13 21 24 35 33 34 36 36 41 42 41 40 41 43 45 48 52 56 58 59 61 64 68 68 70 71 74 75 77 80 82 87 88 88 87 86 83 80 75 69 65 61 58
19 20 21 23 27 29 30 23 35 37 40 40 41 40 41 41 41 42 43 46 50 53 57 59 62 65 69 72 72 72 74 76 79 81 84 86 85 87 89 89 87 81 74 67 59 53 50 48 47
19 22 23 25 27 32 31 29 36 37 40 40 41 40 38 39 41 46 49 53 56 59 62 64 67 71 74 77 77 80 80 79 82 85 83 88 89 89 87 86 77 66 57 51 48 46 46 46 46

GFSSGP_500_spd_030.txt.gz
Wind_Speed
16 16 15 11 10 9 9 21 30 28 25 21 17 20 21 21 20 21 23 22 24 28 24 22 19 17 14 12 9 5 7 9 9 10 11 11 11 12 13 13 14 14 14 14 14 15 15 14 15
15 14 14 9 10 3 16 27 31 29 15 17 19 23 26 18 23 24 24 25 25 20 19 15 12 8 7 4 3 6 7 9 10 11 13 12 12 10 9 9 8 9 10 11 11 13 14 16 17
15 12 9 9 13 8 31 31 32 26 20 21 20 24 22 23 23 20 23 21 14 11 11 9 7 8 8 6 7 7 7 7 9 10 11 10 8 6 5 6 8 9 10 10 11 12 12 13 13
12 9 7 10 7 22 24 22 30 26 21 17 22 21 22 22 14 18 14 11 10 8 6 4 6 5 3 3 4 5 6 7 7 9 10 12 11 10 9 9 8 8 8 8 8 8 9 9 11
10 5 16 8 17 24 29 36 28 18 12 17 18 20 13 12 11 10 9 7 3 1 0 1 2 5 7 8 7 6 5 6 7 8 9 9 9 9 10 10 10 10 11 11 11 11 11 10 10
12 16 16 17 28 31 38 34 12 13 20 10 16 12 8 7 7 7 5 3 4 5 6 8 9 8 7 6 5 4 5 6 7 8 8 8 9 9 9 10 10 10 10 11 12 13 14 14 14
17 15 9 24 30 18 23 13 11 18 17 11 9 3 2 3 4 8 10 10 12 11 9 6 6 5 4 4 5 6 8 9 10 10 11 12 12 13 13 13 13 14 15 15 16 17 17 18 18
22 14 13 21 25 29 8 10 9 11 10 6 5 10 12 14 16 16 15 12 10 7 5 3 3 5 7 8 10 11 12 13 15 16 16 16 16 17 18 19 19 20 22 24 24 23 23 22 21
18 12 11 9 13 13 9 9 7 3 3 7 8 9 11 10 11 11 9 7 4 3 4 6 7 9 9 14 14 16 17 18 19 20 20 20 21 22 23 26 26 26 26 26 25 26 26 26 27
22 6 20 21 18 10 10 12 9 8 10 12 13 11 8 6 5 4 3 2 3 5 6 8 11 13 15 16 19 20 21 21 22 22 25 25 27 27 26 26 27 27 29 27 27 29 30 29 30
7 20 24 18 15 14 12 10 11 11 14 14 11 7 4 2 0 3 4 5 5 7 9 11 12 14 16 19 21 24 24 25 24 26 28 28 30 30 32 31 30 30 30 32 32 34 37 37 35
18 22 23 17 16 13 13 12 11 13 11 7 4 3 2 3 5 6 6 8 10 10 11 11 14 16 19 20 25 28 29 30 31 31 31 33 33 33 34 34 34 34 35 36 38 41 42 38 38
11 14 15 16 13 10 9 9 9 8 5 4 2 4 5 6 6 7 9 10 12 12 13 15 18 19 21 25 28 29 31 33 35 35 35 37 38 39 39 37 37 39 40 41 41 43 40 38 36
11 15 14 12 10 9 8 8 7 7 4 4 5 7 6 7 8 8 11 13 15 18 19 20 20 22 25 28 29 30 32 35 36 38 38 39 39 40 40 41 43 43 42 42 41 40 40 39 38
9 8 5 3 4 4 5 6 8 5 8 8 7 9 10 10 13 13 13 18 20 20 22 21 22 24 29 31 30 33 35 37 39 41 42 43 42 44 44 45 45 44 42 42 43 43 44 44 45
7 4 2 1 3 3 4 7 11 8 11 8 9 9 11 17 18 23 18 20 22 23 23 26 29 31 32 35 35 38 41 42 44 45 48 46 44 48 46 45 45 44 44 46 47 49 50 50 50
5 4 3 10 6 5 6 4 19 11 13 10 11 16 15 18 23 25 22 23 22 24 26 31 36 37 36 40 40 42 44 45 48 50 51 49 49 48 46 48 48 49 52 54 55 56 56 58 57
7 3 16 13 5 6 8 11 18 12 14 12 14 18 24 22 25 26 24 24 26 26 31 34 39 42 42 43 44 46 48 50 52 52 53 50 51 50 51 53 55 56 57 58 61 62 62 63 62
16 13 7 11 7 9 11 14 15 14 17 17 19 22 25 27 26 28 27 26 26 30 35 37 41 42 46 45 48 52 53 55 55 55 55 53 54 53 55 56 58 60 63 65 67 67 66 66 67
17 13 13 12 9 10 15 16 17 15 20 21 23 24 25 26 27 29 29 29 31 34 38 41 44 47 48 49 53 53 54 55 54 54 55 57 58 57 59 61 64 66 67 68 68 69 69 69 69
12 13 12 12 11 11 14 17 23 19 20 24 28 27 27 27 28 29 30 32 36 39 42 45 48 48 48 52 55 54 53 52 53 56 58 59 61 65 66 69 69 69 70 71 72 73 74 75 72
16 10 14 14 15 14 17 10 28 26 27 24 25 27 28 31 30 30 32 36 39 42 45 47 48 50 50 52 52 52 51 53 56 58 60 63 65 66 68 70 71 73 74 75 75 74 71 71 72
17 17 17 18 19 19 19 18 21 34 34 33 23 26 28 33 33 35 37 41 43 44 46 47 50 50 50 48 48 51 53 54 58 61 63 64 66 69 71 71 73 74 74 75 77 78 78 77 79
18 20 20 21 21 21 15 14 25 27 32 34 26 31 31 33 38 41 42 46 46 45 47 47 49 47 50 50 50 53 56 57 59 63 66 69 70 72 72 73 73 75 76 78 79 81 82 82 81
14 14 13 13 11 11 13 14 26 30 33 40 37 36 37 39 40 43 46 47 48 49 50 44 43 45 48 51 56 59 60 63 66 69 71 71 71 73 75 74 75 78 80 81 81 82 83 84 84
10 10 11 11 11 16 19 20 31 25 29 34 38 37 37 39 41 45 46 46 47 47 45 44 45 49 53 57 60 63 66 68 71 74 75 73 73 73 74 78 82 84 82 81 83 83 83 83 83
10 12 14 16 17 18 15 20 26 30 29 32 35 37 39 40 43 44 46 47 43 42 44 48 51 55 58 61 64 67 70 72 73 71 70 71 74 77 81 82 81 80 81 82 83 82 80 73 67
13 14 17 20 22 22 11 15 27 34 40 40 42 44 44 40 41 43 40 40 41 44 47 50 52 58 63 66 70 72 75 78 76 74 75 76 80 83 82 83 82 82 83 80 77 71 64 56 51
18 21 19 20 24 26 24 20 33 35 39 39 44 45 48 41 40 40 39 41 43 46 50 54 58 63 67 71 75 80 82 82 80 81 80 84 84 85 84 85 83 81 78 73 64 54 49 48 48
18 21 24 27 27 29 33 28 31 32 35 36 36 41 40 37 33 38 40 42 46 52 57 61 65 70 76 81 83 85 86 78 78 80 81 82 81 82 83 82 78 74 69 60 51 47 47 47 48

GFSSGP_500_spd_033.txt.gz
Wind_Speed
28 20 16 16 12 18 14 16 22 29 22 20 26 22 21 24 22 25 19 22 21 21 23 21 21 16 12 10 9 7 6 7 7 9 11 11 10 10 10 8 9 8 7 7 9 9 11 12 14
21 16 13 9 14 19 23 23 25 21 15 28 23 24 20 21 23 24 21 22 25 23 20 15 12 9 8 9 5 4 3 4 5 7 8 8 6 5 5 6 7 7 6 7 8 8 9 9 10
16 13 13 15 23 21 25 28 27 25 28 27 29 26 21 19 18 21 21 20 22 15 13 11 9 6 7 4 2 2 4 7 8 9 10 11 10 10 9 10 9 9 8 7 7 7 8 9 9
18 19 24 20 18 20 16 23 25 23 34 33 30 26 20 11 17 19 16 14 12 12 9 5 5 4 1 4 7 8 5 5 4 4 5 6 7 7 8 8 9 9 8 9 10 10 10 10 10
12 16 24 20 16 15 14 24 19 24 26 31 31 12 15 10 14 11 7 12 9 7 6 5 5 8 9 8 6 5 3 3 4 5 6 6 6 6 6 7 8 10 10 10 11 12 13 13 12
24 30 20 12 14 15 16 18 26 30 33 35 24 9 11 11 10 8 7 9 10 8 8 10 10 8 7 5 4 3 4 6 7 8 9 9 10 10 11 10 10 10 11 11 12 14 16 17 17
27 24 22 21 20 24 21 23 32 34 39 20 16 8 5 6 5 7 14 12 12 12 11 9 6 3 2 3 5 7 9 10 11 12 12 13 14 15 14 15 16 17 18 18 20 20 21 20 20
29 24 16 20 22 25 25 28 29 27 17 14 2 7 7 8 10 13 16 14 12 9 7 4 2 4 5 7 8 10 13 15 16 15 15 17 17 20 21 21 21 22 21 21 23 22 21 21 22
23 20 17 18 23 29 27 21 19 15 10 4 12 12 11 12 13 13 11 10 6 4 4 1 3 5 7 9 12 14 17 18 20 19 20 21 20 22 25 25 25 26 25 24 24 23 22 23 24
16 11 16 14 18 18 21 15 13 6 6 13 11 12 11 9 8 7 6 4 3 3 2 3 5 6 10 14 15 16 18 20 22 23 23 24 23 23 23 25 25 27 28 27 27 28 28 28 29
18 15 20 22 23 16 12 14 11 10 9 10 8 8 7 6 4 3 2 0 2 3 6 7 9 11 11 12 14 19 22 24 24 27 27 26 27 28 30 30 30 30 29 29 30 32 34 34 36
19 18 23 23 24 8 9 7 7 7 9 8 8 5 4 4 5 4 4 4 6 7 7 12 13 15 16 18 18 21 21 25 26 26 28 31 32 35 37 36 36 35 34 34 34 35 35 35 34
25 21 23 23 12 7 5 4 5 3 4 8 6 4 3 6 6 7 8 6 8 9 10 14 17 19 18 21 24 28 29 32 33 33 34 34 36 38 41 41 43 42 40 40 40 39 37 35 34
10 8 9 10 9 5 2 4 6 2 5 3 4 4 5 6 6 9 12 16 18 17 15 15 20 20 22 25 28 30 32 35 35 36 37 37 38 41 43 43 45 43 41 40 39 38 37 37 37
13 13 11 9 6 2 2 3 8 5 6 5 7 11 9 10 10 11 14 19 21 23 23 20 18 24 28 30 31 35 33 37 39 39 40 42 42 45 46 46 45 41 39 39 39 40 42 43 44
10 7 8 8 6 2 2 7 11 3 6 9 8 10 14 14 18 19 18 19 22 24 26 25 25 25 21 34 30 34 36 39 42 46 48 46 45 45 46 45 44 45 45 46 47 48 50 51 53
12 9 6 7 5 1 6 10 8 7 8 7 10 12 12 21 23 27 23 21 24 27 28 28 29 28 34 40 36 40 40 42 48 51 53 52 49 45 43 44 47 48 50 52 53 55 57 59 59
14 8 4 13 3 3 8 14 16 10 10 13 13 17 20 22 25 27 28 27 27 29 29 30 35 38 39 41 41 41 46 49 51 54 53 53 51 49 50 52 54 54 56 56 58 60 61 61 63
16 16 16 8 2 8 9 18 18 11 14 17 19 20 24 26 25 28 31 31 29 27 30 34 39 42 44 45 48 46 51 54 56 55 54 52 52 54 56 56 57 59 60 62 63 65 66 67 69
16 16 13 10 4 8 10 17 19 17 17 19 16 19 22 24 26 28 31 33 33 32 35 37 41 44 48 50 51 51 52 54 53 53 55 57 57 57 59 61 62 64 66 68 69 71 73 74 76
13 16 15 14 9 8 14 19 20 19 16 18 18 19 20 21 23 27 30 33 34 36 39 42 44 47 50 50 49 50 50 49 50 52 54 56 60 62 64 67 70 72 73 74 75 76 76 75 76
11 8 12 13 14 13 18 17 24 24 24 24 22 20 25 24 23 28 32 33 36 38 42 46 47 48 47 49 50 48 47 49 50 53 58 60 61 64 66 69 72 74 76 78 78 79 79 79 78
10 12 14 15 17 17 18 22 22 28 28 29 23 24 29 28 29 29 32 36 38 41 44 47 48 49 49 45 42 44 47 50 54 58 61 63 65 68 71 72 73 76 77 77 78 78 79 81 82
15 17 18 19 21 20 19 23 27 33 29 28 24 30 34 41 38 37 37 38 38 40 42 45 48 49 49 49 49 49 51 54 58 61 64 67 70 72 72 73 75 75 76 77 79 80 82 81 81
10 10 10 9 12 12 12 16 24 23 27 34 34 35 37 37 42 41 41 42 42 41 43 45 43 42 44 47 49 53 58 61 65 69 72 74 76 78 81 78 76 75 77 80 81 81 81 80 80
6 7 8 10 11 12 14 21 24 26 30 35 37 38 37 38 40 44 43 47 43 46 46 43 42 44 46 49 53 57 62 67 71 75 78 80 82 81 80 76 76 79 82 82 81 79 81 80 80
7 9 10 11 11 11 13 21 27 23 30 40 35 35 37 47 47 47 47 45 42 40 41 41 42 44 47 51 57 64 69 73 77 79 79 80 75 77 77 76 86 80 80 79 81 79 76 73 72
8 11 12 14 18 15 11 21 25 28 32 37 44 49 49 42 44 41 37 37 37 39 40 41 45 49 54 61 68 72 76 80 80 78 78 77 79 76 79 88 86 84 81 81 77 73 68 63 59
9 13 18 20 24 25 23 22 29 31 31 34 37 42 42 41 41 42 39 37 35 38 43 48 51 59 65 70 75 79 83 85 85 85 84 83 82 83 84 86 84 82 78 72 68 64 59 53 46
12 14 18 23 27 28 28 21 25 31 31 31 32 32 37 41 45 40 38 39 42 47 51 54 60 65 72 77 81 85 87 88 87 82 84 84 84 84 83 82 80 74 66 62 60 57 51 46 46

GFSSGP_500_spd_036.txt.gz
Wind_Speed
27 27 26 23 20 27 27 28 23 23 25 22 23 22 19 26 24 28 24 24 23 22 21 22 18 14 11 8 9 6 5 7 9 9 9 8 7 8 10 10 11 11 11 11 10 12 12 13 15
23 24 22 16 22 26 29 29 19 23 21 23 26 15 21 27 29 27 25 26 25 24 23 16 13 10 8 9 8 6 4 2 5 7 9 10 9 9 8 8 7 8 8 9 9 10 11 11 12
27 30 17 20 26 31 32 29 28 22 21 22 14 20 23 27 31 30 27 28 25 23 14 13 10 7 7 5 3 2 5 5 4 5 6 5 5 5 5 5 6 7 8 8 9 9 10 11 11
24 26 24 30 36 34 25 29 28 28 29 34 19 23 24 29 29 29 29 23 20 13 12 9 5 4 2 5 7 6 4 2 3 3 3 3 3 4 4 5 6 7 9 10 11 11 13 13 14
17 28 36 33 29 24 26 29 25 20 16 19 25 25 30 31 25 23 23 17 13 10 6 4 4 8 8 7 5 2 1 2 4 6 7 8 9 9 9 10 10 10 11 12 13 13 13 15 15
26 28 25 21 24 26 30 25 18 15 17 21 26 29 30 23 20 21 17 13 10 7 6 9 10 8 6 3 2 2 4 6 7 9 11 12 14 13 13 15 15 16 16 17 19 19 19 20 20
24 27 23 24 27 23 13 12 13 20 22 25 28 21 23 13 15 14 12 11 10 10 11 10 8 4 1 1 3 5 7 9 11 13 15 16 18 17 17 18 19 19 20 22 22 22 22 21 21
34 28 24 20 21 22 12 17 26 24 24 15 10 15 10 7 8 10 11 13 14 12 10 7 3 2 4 5 7 9 10 12 13 15 18 18 21 20 21 21 22 22 22 24 24 24 24 23 21
31 30 22 21 19 8 20 25 24 26 20 10 14 12 10 9 13 14 15 13 11 9 7 4 3 6 8 9 10 11 12 14 16 18 20 21 22 24 24 23 24 25 26 26 27 26 25 24 25
29 26 23 24 21 18 13 20 23 18 12 10 12 13 12 12 12 11 9 8 7 7 7 6 8 10 10 10 12 13 14 17 20 22 22 22 23 24 26 27 28 28 27 28 29 29 28 28 29
28 28 21 17 14 9 15 19 20 10 11 11 10 9 8 8 8 7 5 5 5 6 8 9 10 12 14 14 14 14 17 21 25 27 27 24 25 26 28 29 31 32 32 32 33 33 33 34 34
11 8 11 12 10 10 19 6 9 8 10 9 11 10 8 5 2 3 4 6 7 8 11 11 13 15 17 16 16 18 21 24 26 27 29 30 30 31 34 35 36 37 37 37 36 35 35 35 34
19 17 14 15 16 12 11 9 10 12 11 8 6 4 3 3 3 4 4 5 7 10 13 17 17 18 20 19 20 22 24 26 27 28 29 30 31 36 40 41 41 41 40 39 37 34 32 32 33
24 17 16 16 14 9 8 6 4 7 8 8 7 5 4 5 6 5 5 9 9 11 13 15 22 24 21 24 27 26 28 32 29 32 33 33 37 42 42 43 42 41 39 36 35 35 35 35 36
16 12 13 12 10 7 6 4 3 3 3 1 4 6 7 8 8 8 11 12 17 15 14 17 20 25 28 26 21 26 34 36 37 37 39 41 43 43 43 42 43 41 39 39 40 41 41 41 42
18 19 18 13 9 7 6 4 1 5 3 6 8 8 8 10 10 11 14 16 19 21 24 24 22 22 24 25 24 31 34 36 40 41 42 42 45 43 42 41 41 41 42 44 45 46 46 48 49
16 19 16 13 6 2 3 4 1 4 6 6 8 9 10 13 15 15 17 19 21 25 28 30 27 26 29 32 35 35 38 40 38 42 44 47 45 41 39 41 44 45 46 48 49 51 53 54 54
13 14 10 8 3 2 8 9 7 5 5 9 11 14 16 19 22 24 25 24 23 25 29 28 30 31 33 38 43 46 44 45 45 48 49 48 46 45 45 45 47 50 51 53 54 57 59 61 62
6 6 6 2 3 6 13 15 12 8 6 10 15 16 18 20 23 26 27 29 27 25 29 31 34 39 43 46 49 47 50 49 48 52 51 49 48 48 50 53 55 57 59 59 61 63 65 67 69
11 11 7 1 5 8 13 16 15 14 14 15 17 16 15 20 24 26 27 26 29 31 31 36 42 45 47 50 51 52 53 53 54 53 52 52 53 56 58 60 62 63 65 67 68 70 71 74 76
15 14 11 11 8 13 16 18 17 19 18 16 14 14 18 21 25 27 27 28 30 35 38 41 44 46 48 50 51 52 52 52 51 51 51 54 56 59 61 63 67 70 73 76 77 78 80 82 84
7 11 16 15 13 14 18 22 22 23 25 24 16 14 18 22 27 26 23 28 31 34 37 40 43 46 48 50 51 52 50 48 49 52 55 57 60 62 67 70 73 77 79 80 82 84 86 87 87
9 12 13 15 18 15 21 24 28 28 29 28 20 16 15 24 28 26 33 34 33 35 37 40 44 47 47 48 47 46 46 47 49 52 55 58 62 65 69 73 76 78 80 82 83 82 83 85 84
10 12 15 17 19 19 22 24 27 28 29 31 24 19 24 29 33 34 35 34 34 39 40 46 49 49 48 45 44 45 45 46 51 56 63 67 70 74 77 80 81 82 81 80 80 82 83 85 85
8 7 8 8 9 10 13 18 23 25 23 25 26 31 31 33 37 35 33 31 40 42 45 47 46 45 44 43 43 46 50 55 61 66 70 74 78 81 83 84 84 82 82 82 81 82 84 88 93
3 3 5 6 7 10 15 18 23 28 30 30 28 34 33 41 41 34 42 46 43 39 37 37 38 37 37 40 46 50 55 61 67 72 75 79 83 86 87 87 86 85 84 82 82 83 85 88 90
1 2 1 2 6 10 14 18 22 25 26 28 27 32 37 41 51 47 48 37 37 38 36 35 34 37 41 45 50 56 63 69 75 80 84 87 89 90 88 86 84 84 85 85 84 84 84 84 79
1 2 5 8 12 15 20 23 25 26 31 34 37 39 40 38 39 35 33 38 35 31 33 36 41 44 49 55 60 65 70 76 81 85 89 90 90 88 88 87 86 86 85 84 82 79 76 70 67
2 5 8 13 16 19 22 25 27 28 28 31 33 34 35 32 33 35 38 42 35 37 41 44 48 53 57 61 66 71 77 81 85 88 89 88 88 88 88 86 86 85 81 74 69 66 63 62 60
5 7 12 15 19 22 26 28 31 33 34 34 34 32 30 33 37 37 38 36 38 41 45 49 53 57 62 66 71 77 82 86 89 88 88 88 88 87 87 86 83 72 63 64 62 58 58 56 54

GFSSGP_500_spd_039.txt.gz
Wind_Speed
33 36 39 39 32 30 33 32 30 29 27 26 25 20 19 19 22 22 25 27 30 32 29 27 23 21 16 11 7 8 6 4 6 6 7 8 8 8 8 9 9 10 11 12 12 13 14 14 16
32 35 36 29 30 30 35 30 29 29 28 24 24 19 16 18 18 22 29 31 31 31 26 24 21 17 11 6 6 2 1 3 4 4 5 5 5 4 5 7 7 8 9 10 11 13 14 14 15
37 23 22 29 27 29 32 32 27 25 26 26 29 23 23 23 19 25 32 33 32 31 27 22 16 10 6 4 2 4 5 3 1 1 2 3 4 5 6 8 9 10 10 11 12 14 15 15 16
24 27 25 27 32 34 35 32 24 24 22 22 29 31 23 19 20 30 37 35 32 27 19 16 9 4 3 6 6 5 3 1 2 4 6 6 7 9 10 11 11 13 13 14 14 15 16 17 17
23 22 36 27 33 31 34 31 32 27 23 23 34 18 15 19 26 34 35 32 25 17 13 8 4 8 9 8 6 4 4 4 6 8 10 11 13 14 15 16 17 18 19 19 19 20 21 21 22
28 27 28 32 36 30 30 30 27 25 26 23 15 18 24 27 31 33 28 24 17 14 9 8 11 10 8 7 5 4 5 7 10 12 13 15 17 18 19 20 20 22 23 23 23 25 25 27 28
16 21 30 33 30 32 23 20 24 20 11 16 16 25 28 28 31 30 22 19 14 10 10 14 12 8 7 5 6 6 8 10 13 14 16 17 19 19 21 22 23 25 27 27 28 28 28 28 28
21 24 30 27 36 34 31 30 15 9 15 18 20 25 25 24 21 18 15 11 10 12 15 12 8 7 7 7 8 10 12 14 16 18 18 20 21 22 23 24 24 24 25 26 28 28 29 29 29
25 26 27 24 21 24 13 1 8 16 18 20 21 21 17 8 4 9 12 12 12 13 11 9 9 9 8 10 12 14 16 18 19 20 22 23 23 24 24 23 24 25 27 28 29 29 29 29 29
29 26 22 19 20 12 8 6 13 15 16 14 14 13 9 8 10 12 12 12 10 10 10 9 10 11 12 13 15 17 19 21 23 23 25 24 24 25 27 27 27 29 29 31 32 32 32 33 33
34 28 23 15 9 15 1 13 19 16 13 6 10 11 9 7 7 8 8 7 8 10 10 10 12 13 16 17 18 21 24 23 24 27 26 26 27 26 28 28 29 31 32 34 34 33 33 32 32
12 16 13 12 7 5 6 10 8 5 5 5 9 10 10 6 5 5 5 6 8 10 10 10 13 16 18 19 21 25 24 24 28 30 29 27 28 28 28 32 36 35 35 35 34 33 31 30 30
15 10 10 4 5 6 7 8 5 6 7 9 10 9 8 6 5 4 4 5 7 10 12 15 15 18 20 22 24 23 26 24 27 29 28 29 29 30 36 38 38 38 35 34 34 33 31 31 30
6 12 10 9 11 11 9 7 8 11 12 10 8 9 7 5 4 4 3 5 8 12 15 17 18 20 22 23 24 24 22 27 27 30 29 33 35 37 37 40 42 39 36 34 33 33 34 34 34
6 11 8 10 10 9 10 10 13 12 13 11 10 8 7 6 4 4 6 10 12 14 15 19 19 22 23 24 21 23 21 28 32 37 37 34 37 38 40 43 42 39 37 36 37 37 37 37 38
11 15 13 12 11 11 8 9 8 6 7 7 8 10 8 7 7 11 13 13 14 16 18 21 21 24 23 26 29 28 29 32 39 38 40 42 42 43 43 42 41 41 40 40 41 42 43 44 45
18 18 14 12 10 10 9 6 5 6 6 6 8 8 9 8 12 14 15 18 22 21 22 21 22 18 25 25 29 33 42 44 44 44 44 45 44 47 43 40 40 41 43 45 45 46 47 48 49
22 19 16 14 10 10 9 5 4 7 9 9 10 10 10 13 16 18 19 21 22 22 21 24 24 26 29 36 42 43 46 46 47 47 47 52 50 47 44 43 43 43 45 48 48 51 54 55 57
20 22 13 11 3 4 5 5 6 6 8 10 10 11 14 18 22 23 25 25 25 21 21 26 29 35 43 45 48 49 48 48 51 54 53 54 50 48 48 47 49 52 54 57 60 62 63 65 67
16 21 11 6 0 5 9 12 11 10 11 12 13 14 16 18 24 26 25 25 25 25 27 31 36 40 43 46 49 52 54 55 56 56 56 52 51 51 51 54 57 61 65 67 69 72 74 76 76
14 11 7 5 8 10 12 14 15 16 16 15 14 14 15 21 25 26 25 25 24 28 32 36 42 47 50 52 53 54 56 57 57 56 53 52 51 52 57 61 67 71 73 74 77 79 82 83 84
10 10 11 11 12 18 19 22 20 20 21 21 21 18 20 23 25 24 25 28 29 33 39 38 40 43 47 50 52 57 59 59 57 54 54 54 57 61 65 69 73 76 79 81 83 84 86 87 87
11 11 11 12 14 17 22 25 24 24 24 24 23 24 25 26 28 26 28 33 35 39 40 40 40 44 46 51 56 57 55 53 51 51 52 56 59 64 69 73 77 80 82 84 86 86 85 85 85
10 11 13 16 18 21 24 27 29 25 23 21 21 24 25 27 29 31 38 39 42 41 42 40 43 45 50 52 50 49 49 48 49 54 57 61 66 70 74 78 81 84 86 87 87 87 86 86 86
11 13 13 14 12 15 16 18 20 21 22 25 27 27 29 29 30 31 38 44 46 37 43 37 40 43 48 45 42 42 46 51 55 59 63 67 71 77 80 84 87 90 90 88 87 86 86 87 89
8 7 8 9 9 10 10 15 17 19 22 24 26 28 30 26 36 36 41 42 49 30 30 39 40 40 37 37 42 45 49 54 58 63 68 74 79 82 86 89 91 90 88 87 87 88 90 90 90
7 7 4 3 6 8 10 14 16 20 24 26 27 29 32 33 34 39 44 46 37 34 35 32 32 34 37 41 46 51 55 61 67 72 77 80 83 87 90 92 93 91 90 91 91 91 88 84 79
9 6 3 3 5 8 12 15 18 20 22 20 21 23 27 28 31 32 32 30 33 33 30 34 36 39 44 49 54 58 63 69 73 78 81 85 88 92 93 94 94 94 94 93 91 89 79 68 72
8 6 3 4 9 14 17 20 20 24 26 27 27 29 28 27 28 31 31 33 32 33 37 38 42 47 51 55 59 65 70 73 77 81 86 90 93 95 95 95 95 96 96 91 84 72 63 64 69
8 7 8 10 13 16 18 20 21 24 25 28 28 31 32 34 34 34 33 33 36 38 40 44 48 52 55 59 64 69 71 75 81 86 89 92 94 95 97 95 95 92 80 73 66 60 62 67 69

GFSSGP_500_spd_042.txt.gz
Wind_Speed
29 30 32 29 35 33 33 31 33 29 28 30 29 26 25 25 21 20 18 20 23 27 30 29 25 25 23 18 8 5 3 1 4 5 5 5 5 6 7 8 9 10 10 11 13 14 14 15 14
27 28 31 29 30 32 32 34 33 29 30 28 27 28 25 25 21 17 17 19 24 29 31 29 26 22 17 9 4 2 3 3 2 1 2 3 4 5 7 9 11 12 12 13 14 15 16 17 17
25 32 31 29 35 34 33 30 31 33 32 27 28 30 30 24 19 16 12 19 26 31 29 24 20 17 10 5 4 4 4 3 2 3 4 5 6 8 10 11 13 14 14 16 16 17 18 19 19
34 32 30 22 26 32 32 30 31 27 31 31 31 35 33 32 24 17 18 23 27 27 25 18 14 10 5 6 6 6 5 4 5 6 7 8 10 12 14 16 17 18 19 20 21 22 22 23 23
29 32 26 26 28 28 32 33 33 37 27 30 34 20 30 22 16 18 23 23 22 21 19 14 10 6 8 8 8 7 6 7 8 9 11 12 15 17 19 19 21 22 23 24 24 26 26 27 27
18 29 23 27 26 28 31 33 26 33 30 25 25 22 16 16 18 22 22 19 16 14 13 10 8 11 11 9 8 7 8 9 11 12 14 15 17 19 20 22 23 25 26 27 28 30 30 31 32
19 27 27 28 34 28 26 24 26 35 26 27 21 20 19 20 22 21 19 16 13 11 10 11 13 11 10 9 8 8 10 12 14 15 16 19 21 23 24 24 24 25 24 24 24 26 28 29 29
20 35 28 26 26 26 27 30 18 13 16 10 12 16 19 21 22 19 14 12 10 9 11 12 11 11 9 10 9 11 13 16 16 17 20 22 24 24 25 26 25 24 23 25 26 27 28 28 28
16 19 20 23 21 36 34 33 19 5 5 10 10 15 15 14 13 10 10 9 9 11 12 12 11 10 10 11 13 15 17 18 20 21 21 23 27 30 30 28 26 26 26 28 29 31 31 31 30
24 20 22 26 28 19 27 18 9 12 8 9 9 5 4 3 2 3 6 9 10 10 10 10 9 11 12 14 16 18 19 21 23 24 24 26 30 30 29 29 28 27 27 32 34 34 34 34 33
18 19 16 17 20 6 4 3 15 11 4 1 3 6 6 4 4 6 6 6 6 8 9 9 11 13 15 17 19 20 21 24 25 25 26 27 29 28 29 30 30 29 36 36 35 35 34 33 32
22 21 12 15 4 9 11 13 10 7 6 1 4 7 7 5 4 4 5 7 8 9 9 10 13 15 17 19 21 22 24 26 27 26 24 27 28 29 30 32 35 36 35 38 38 36 34 33 31
28 4 8 2 5 8 12 11 5 0 4 6 7 8 6 5 5 4 5 7 6 7 10 12 15 18 20 23 25 26 26 27 26 26 25 28 29 31 35 36 37 39 39 39 39 36 33 31 31
9 7 5 4 4 5 3 0 2 5 7 6 7 7 8 7 4 1 2 4 8 11 14 18 19 21 23 26 27 28 28 29 26 22 25 33 32 33 34 38 41 44 43 41 38 36 35 33 31
4 10 5 4 5 5 6 9 10 11 11 9 9 11 10 7 3 3 6 10 12 14 17 20 23 22 24 26 28 30 30 27 27 26 31 35 36 37 40 40 44 46 44 41 39 37 36 37 38
3 9 6 7 8 11 11 12 11 11 14 14 11 11 9 8 9 11 12 13 14 17 21 23 24 20 23 29 25 30 24 25 30 35 39 40 39 42 42 47 47 47 45 42 40 41 41 42 43
9 12 7 10 13 12 12 13 14 16 11 5 8 11 10 12 13 15 15 14 15 17 18 18 19 21 25 29 29 31 28 26 36 37 45 47 48 49 49 48 47 44 42 41 40 41 43 47 50
17 14 14 13 12 12 12 13 10 7 8 8 12 13 12 12 13 15 16 18 20 22 23 21 18 21 31 28 37 42 44 46 45 44 52 52 53 54 53 51 47 42 39 41 45 50 54 56 58
18 15 14 15 14 12 12 9 5 6 7 10 12 13 14 14 14 18 20 22 23 23 21 22 23 29 37 40 44 50 53 54 57 55 54 55 56 55 54 50 46 44 46 50 54 58 63 65 66
20 19 16 12 12 8 8 7 4 4 5 7 11 13 15 17 19 22 22 24 25 23 17 28 33 37 41 44 48 48 51 54 55 56 58 58 56 54 50 48 50 53 58 62 66 69 72 75 78
22 25 22 12 9 7 7 8 9 9 10 13 15 16 18 21 24 27 24 24 26 28 33 38 42 42 44 47 48 48 54 55 56 56 55 54 52 50 52 57 62 64 68 72 75 78 81 82 82
18 20 17 10 10 11 12 14 12 14 16 18 20 22 22 24 29 32 31 28 30 31 35 40 41 45 49 51 49 53 57 55 53 53 50 49 51 55 59 63 66 69 74 77 81 84 84 85 86
13 9 9 10 12 14 16 18 16 19 21 23 25 25 25 25 28 32 32 30 33 37 40 44 48 50 45 46 48 50 55 53 51 50 51 54 57 60 63 67 71 74 77 80 82 84 87 89 90
12 13 13 13 14 16 18 20 18 18 17 17 20 23 25 29 28 30 31 33 35 39 42 44 42 45 37 41 45 49 52 47 47 51 55 58 61 64 67 70 74 79 82 85 88 90 91 92 93
15 14 14 15 14 13 13 13 10 11 14 17 20 23 25 27 30 31 34 30 40 45 45 48 60 42 38 43 47 46 45 47 50 54 58 60 64 67 72 78 81 85 89 92 93 93 95 95 95
15 14 12 10 9 7 7 8 7 5 7 10 13 15 18 20 24 26 28 36 41 45 47 48 44 38 41 40 41 43 46 50 54 57 61 66 71 76 81 85 88 91 93 94 95 96 97 97 97
12 11 8 5 4 5 4 6 8 10 13 15 17 18 18 21 25 29 33 36 39 41 44 43 44 41 39 42 44 47 51 54 58 62 68 74 79 82 86 90 93 95 97 97 98 99 101 98 90
12 10 8 6 5 5 7 10 13 14 17 18 21 23 23 26 29 33 34 34 35 37 37 35 36 41 43 45 48 52 56 59 65 71 76 80 83 88 93 95 96 97 98 98 98 99 90 79 67
12 10 9 9 8 10 10 11 14 17 19 21 24 27 29 30 30 31 33 35 35 34 35 38 41 43 47 51 54 58 61 66 71 76 81 85 89 93 96 99 100 99 99 100 94 81 70 56 54
14 12 12 12 13 15 16 16 19 21 22 25 28 31 33 34 36 38 38 38 39 41 43 45 47 49 52 55 59 61 66 72 77 82 86 90 93 97 99 101 100 99 99 89 75 65 54 45 47

GFSSGP_500_spd_048.txt.gz
Wind_Speed
26 27 29 31 31 32 33 35 35 36 33 45 38 40 41 39 37 33 29 30 31 25 19 19 17 20 18 16 14 12 10 9 8 6 3 1 2 4 7 9 10 12 14 16 17 18 18 17 16
26 27 29 28 29 30 24 33 36 38 35 37 44 42 41 35 30 29 32 33 31 27 22 15 17 17 15 14 12 9 10 11 9 5 3 3 4 7 10 13 15 16 17 18 19 20 20 20 20
24 27 29 27 28 23 19 29 33 35 36 27 43 40 35 31 31 33 35 37 32 30 12 12 13 13 13 11 10 11 12 11 8 5 5 6 7 10 13 15 18 19 19 20 21 21 21 22 23
21 23 27 26 25 30 30 27 26 29 30 27 22 17 16 26 27 32 36 35 37 17 6 8 11 11 10 11 12 12 12 10 9 7 7 8 10 13 16 18 20 21 21 22 22 21 21 22 22
14 21 23 27 26 26 26 24 25 31 33 32 30 36 34 29 32 33 33 41 39 7 9 9 10 10 10 13 15 13 11 10 8 8 9 11 13 15 17 20 21 23 23 23 24 23 23 23 24
15 16 18 23 28 25 25 24 24 27 28 25 23 24 32 21 22 33 36 38 39 4 7 10 11 11 12 15 13 12 10 9 10 11 13 14 16 18 20 22 23 24 24 25 25 25 24 25 26
15 16 20 19 29 31 30 27 28 23 26 34 26 36 25 18 21 20 14 3 4 2 9 12 11 12 14 15 11 10 8 11 13 14 16 17 18 21 23 25 25 25 25 25 24 25 25 25 26
17 18 18 21 20 29 24 26 28 29 12 28 22 24 25 19 13 7 8 5 7 10 13 13 12 14 14 12 10 10 12 14 17 18 18 18 21 25 26 26 26 26 26 26 26 25 23 27 31
18 17 16 22 18 25 27 33 28 22 20 15 17 6 4 2 3 1 4 7 9 12 13 13 14 15 13 11 11 13 16 18 20 20 20 21 25 27 28 27 27 27 27 28 28 28 29 31 32
18 15 16 21 19 19 30 28 26 25 20 10 9 10 8 5 4 7 11 13 12 12 12 13 13 12 10 12 14 16 19 21 22 23 23 26 28 31 30 29 26 26 29 31 32 33 31 34 35
17 15 16 13 21 23 31 23 19 24 28 13 12 13 12 8 11 11 10 10 12 12 12 11 9 9 12 15 17 19 21 22 24 25 27 30 32 32 31 31 30 30 31 33 34 34 35 35 37
13 16 11 10 16 23 17 14 21 18 17 14 9 8 10 8 10 12 13 13 12 10 8 8 10 11 15 17 19 21 23 23 25 27 30 34 35 35 35 31 29 29 32 35 36 37 39 40 40
15 13 16 12 19 21 17 19 22 19 15 11 9 7 8 7 7 7 7 7 7 8 9 10 11 13 15 17 20 24 25 27 29 31 34 36 36 38 42 41 32 27 36 38 40 43 42 42 41
14 6 12 18 23 20 16 13 15 13 11 7 5 6 7 7 7 6 7 8 10 11 11 12 12 14 18 20 23 26 29 32 34 35 36 34 35 36 32 35 35 38 36 39 41 43 45 45 43
14 16 18 14 15 16 13 11 10 10 7 4 2 3 3 4 5 7 8 10 11 12 14 15 15 18 22 24 27 30 33 37 37 39 39 33 34 31 43 43 40 44 43 44 44 43 43 42 42
6 15 7 11 12 12 12 10 10 8 6 4 2 2 4 7 9 10 10 12 14 15 16 16 18 23 24 26 27 30 38 39 36 24 32 37 25 38 36 40 45 48 49 46 43 41 40 40 40
9 8 8 8 8 9 10 12 8 4 5 5 6 7 9 11 12 13 14 16 16 17 18 17 19 22 27 28 32 32 38 32 39 47 39 35 35 40 43 46 46 44 42 40 37 35 36 39 41
6 9 9 8 10 10 9 9 8 6 7 9 6 8 10 12 13 17 19 20 19 22 21 22 24 26 31 29 42 34 36 49 47 41 42 44 45 45 44 46 46 42 38 37 40 41 42 44 46
12 10 8 9 11 11 11 9 9 7 8 10 8 7 9 11 14 16 16 18 17 20 23 24 27 30 32 37 46 41 43 46 47 46 46 47 48 48 47 49 46 41 43 44 46 51 53 55 57
13 10 13 9 4 6 8 8 6 5 6 8 10 11 10 11 13 15 17 18 19 22 25 28 30 33 37 41 43 45 48 48 49 52 51 53 52 51 54 53 48 50 52 54 55 56 57 59 64
17 14 10 6 5 8 8 10 10 9 10 12 11 12 13 14 17 19 21 21 21 24 27 31 34 37 39 42 45 49 51 52 53 54 57 51 50 53 54 51 52 54 56 57 57 60 65 68 72
9 10 11 11 9 8 8 8 13 13 13 13 14 15 16 17 19 19 19 21 25 28 29 31 35 39 41 44 48 51 52 57 58 59 50 48 52 51 51 54 56 57 59 60 64 68 73 77 79
11 9 12 12 14 18 15 13 18 14 15 15 16 15 16 17 16 18 20 22 24 24 26 26 28 32 36 41 46 48 47 47 48 49 49 52 52 54 57 59 62 63 65 68 73 78 81 83 87
15 13 12 14 13 16 16 13 12 12 13 11 12 13 14 13 13 13 13 14 16 19 22 26 29 33 36 39 43 45 47 47 49 49 51 53 57 59 62 64 66 68 72 77 80 82 87 91 94
17 16 14 13 15 14 13 13 11 10 10 9 7 5 4 5 8 11 13 15 18 20 24 26 29 31 34 38 42 44 46 47 50 52 56 57 60 63 65 67 70 75 78 80 84 89 92 95 97
19 16 16 16 15 15 11 8 8 7 4 5 4 4 5 7 11 14 17 19 22 25 28 30 33 34 35 38 41 44 47 51 52 53 56 59 62 65 68 71 73 75 80 85 89 91 94 96 97
17 17 16 16 14 12 9 9 7 6 7 7 8 9 10 12 14 17 20 23 25 29 32 34 37 38 39 40 43 46 48 51 54 55 57 60 63 66 69 71 75 80 86 89 91 94 95 96 99
19 17 16 14 13 12 11 9 10 9 9 11 13 13 14 16 18 20 23 25 28 31 34 36 38 40 41 43 46 49 51 54 56 58 60 63 67 68 71 76 82 86 89 90 92 94 96 96 87
19 17 15 14 14 13 12 11 13 14 14 14 16 17 19 21 23 26 27 29 32 35 38 40 41 43 45 47 51 53 54 56 59 60 63 66 68 72 77 82 86 88 89 90 92 96 91 81 69
20 17 16 17 16 16 16 15 17 16 18 19 20 22 24 28 30 32 34 36 38 40 43 45 47 48 49 51 52 54 56 59 60 63 65 68 72 77 82 84 86 87 88 91 93 85 78 65 48

GFSSGP_500_spd_051.txt.gz
Wind_Speed
26 28 31 34 32 32 29 20 31 30 39 36 40 42 43 39 39 33 41 40 29 29 30 30 26 23 18 17 16 16 16 12 10 9 6 2 1 2 5 7 9 10 12 14 15 15 16 16 17
26 27 28 29 30 25 17 18 32 31 27 37 38 37 35 45 44 45 45 37 31 33 31 35 27 21 15 15 16 14 13 11 12 9 5 3 3 5 7 9 11 13 15 16 17 18 18 17 17
23 24 26 26 26 19 13 19 36 40 38 39 37 39 39 42 51 49 47 35 34 36 40 29 32 13 14 15 14 14 13 13 14 10 7 5 6 8 10 13 14 16 18 19 19 19 18 17 17
18 20 23 24 16 15 27 23 34 34 34 32 31 34 32 38 47 25 32 32 31 33 37 34 13 14 14 14 15 15 13 15 13 10 8 7 8 11 13 16 17 18 20 21 22 21 20 19 19
15 18 18 17 16 23 31 37 37 34 32 30 30 30 26 28 26 32 31 35 30 39 33 17 11 14 14 14 15 14 14 15 13 10 9 9 11 13 16 18 20 22 24 25 24 23 22 21 20
14 12 13 12 14 23 22 36 33 30 29 24 28 25 25 39 34 26 30 36 23 31 22 17 12 13 13 14 14 14 14 13 12 12 11 12 13 15 18 21 23 24 24 25 25 23 21 21 20
16 14 11 14 15 22 26 33 37 24 22 19 24 26 28 23 24 24 26 39 49 47 36 20 18 11 12 14 13 12 12 11 13 13 14 15 17 20 22 23 26 26 27 25 26 24 23 22 21
18 17 13 16 23 24 20 37 32 27 29 28 13 20 32 31 25 26 12 6 12 21 4 5 9 14 12 11 11 11 11 12 15 16 17 19 21 23 26 28 30 30 30 27 26 25 27 26 26
16 13 10 19 27 25 28 32 30 19 27 30 23 22 18 19 19 11 16 9 8 4 7 11 11 11 9 11 11 10 12 15 17 19 21 22 24 27 29 32 34 33 33 31 31 31 29 29 30
13 12 19 21 29 30 15 29 28 32 31 26 16 8 11 9 10 21 9 7 9 11 10 8 10 10 11 10 9 12 14 18 20 21 22 23 27 30 32 35 35 34 34 34 32 30 29 31 34
14 15 25 24 24 19 27 28 29 27 25 27 14 11 13 13 13 14 19 8 8 8 9 9 9 10 10 11 12 14 19 21 22 22 24 27 30 32 34 34 34 36 37 35 27 29 33 36 37
18 21 21 22 20 7 22 19 27 22 10 15 13 11 12 12 14 14 13 11 10 9 9 10 10 11 11 12 15 18 21 22 24 25 28 30 31 34 35 31 32 38 40 41 33 41 38 38 41
29 16 18 18 19 21 18 7 14 7 19 14 11 7 8 11 10 9 9 8 8 8 9 10 11 11 12 15 18 21 23 25 27 28 30 30 32 29 26 33 28 33 34 31 36 40 41 43 43
13 21 13 14 16 21 8 20 21 15 15 12 8 5 6 7 8 8 8 9 9 9 9 9 9 12 15 18 21 24 27 30 32 33 33 37 33 33 36 33 38 40 38 39 43 46 45 43 42
23 18 19 22 22 13 19 9 14 9 10 10 7 6 6 5 4 5 4 6 7 8 9 12 16 17 19 21 25 26 30 33 34 36 44 38 35 32 36 32 38 51 45 46 48 46 46 43 42
27 20 14 14 15 14 14 5 8 7 6 3 4 4 4 4 5 5 6 8 11 13 14 15 16 20 22 24 29 32 37 36 46 32 27 32 37 36 33 37 38 41 43 45 48 46 43 40 38
11 7 7 10 12 13 9 12 9 7 4 4 3 4 4 6 7 8 10 12 13 13 16 20 21 23 24 28 29 34 38 39 49 37 37 37 39 40 42 41 43 45 45 47 45 43 41 40 41
4 6 8 5 7 14 14 15 10 8 7 5 4 5 6 8 9 11 11 13 15 16 18 21 23 25 28 31 31 36 39 40 43 50 49 49 43 43 46 46 43 44 46 44 40 41 43 45 47
4 11 9 8 8 10 9 10 8 4 6 9 9 7 9 9 11 13 13 13 14 17 20 23 26 28 30 34 38 42 45 45 44 48 51 50 51 51 48 47 44 46 47 46 47 49 51 53 55
8 10 12 8 3 7 11 10 9 6 6 8 10 11 11 12 13 12 12 15 18 22 23 24 26 28 31 34 38 39 42 45 46 48 50 48 45 42 44 46 50 49 49 52 53 54 55 57 59
10 11 8 5 4 7 9 11 8 8 8 9 12 14 14 13 14 16 18 20 22 23 24 26 27 29 31 33 35 37 39 41 44 47 48 48 48 49 48 50 49 52 53 55 57 58 59 61 65
13 7 7 9 6 5 4 9 18 9 13 15 15 16 19 19 20 21 21 21 21 21 21 20 21 23 26 29 31 34 36 40 42 45 47 50 49 51 53 56 57 57 58 60 62 64 68 71 73
8 4 4 6 9 14 6 10 19 12 21 21 21 23 23 23 23 21 19 16 14 13 15 17 19 21 24 27 30 33 35 38 41 44 48 51 55 57 56 58 60 61 62 65 68 70 70 72 77
9 8 8 10 9 12 11 12 13 19 21 23 24 24 22 19 18 14 10 10 12 14 16 19 23 26 29 31 34 37 40 42 45 47 50 53 56 59 62 62 62 63 66 69 70 73 76 80 85
12 10 8 8 11 11 17 17 13 30 20 19 16 15 12 11 9 10 11 13 15 17 20 23 27 30 32 34 37 41 43 45 48 50 53 55 58 61 63 64 65 68 70 71 74 79 84 87 91
12 12 12 12 10 9 20 14 18 16 14 10 9 9 9 9 11 13 14 17 19 21 24 27 30 32 35 38 41 43 46 49 51 52 53 56 59 61 64 65 67 69 71 75 79 85 88 91 93
16 17 18 18 17 18 16 14 14 12 11 11 11 12 13 14 16 18 19 22 24 27 29 32 35 37 40 43 45 47 49 50 52 54 57 59 61 63 65 67 68 72 76 81 86 88 90 91 92
20 20 17 19 19 16 7 13 16 14 15 14 15 16 17 19 21 23 26 29 32 34 36 40 43 44 46 48 49 51 53 53 55 56 58 60 61 64 66 68 72 77 82 86 88 89 89 89 91
22 22 20 20 19 17 16 10 19 17 17 17 19 19 20 22 24 28 31 34 37 40 42 45 46 49 51 52 53 54 55 56 57 59 60 61 63 66 68 72 77 81 85 86 87 86 87 90 87
24 22 22 22 20 20 19 21 18 18 20 21 24 24 27 28 29 32 35 38 40 43 45 46 48 51 53 54 56 57 58 58 60 61 62 63 66 68 72 77 81 83 85 86 85 86 90 88 79

GFSSGP_500_spd_054.txt.gz
Wind_Speed
25 27 29 32 32 30 26 24 15 27 34 33 36 43 40 44 46 42 39 43 30 33 33 34 31 32 32 30 29 23 21 15 10 11 12 9 6 3 1 3 5 7 9 10 12 13 13 13 14
23 25 28 30 31 27 22 14 30 36 25 35 36 45 40 39 40 30 37 43 34 40 41 36 32 35 34 31 27 21 18 14 10 14 11 8 5 3 3 6 8 9 11 13 14 14 15 15 13
19 23 25 26 29 27 20 29 31 34 46 44 36 20 29 37 37 39 33 39 43 45 45 40 37 40 31 25 20 18 17 13 11 14 11 8 5 6 7 9 11 13 14 16 17 17 17 15 13
16 19 21 22 24 13 9 26 29 37 37 37 40 33 36 37 34 34 34 36 43 45 52 38 36 38 34 22 18 16 16 10 13 13 10 6 6 8 10 13 15 17 18 19 19 19 18 16 14
14 16 18 19 19 12 19 35 36 44 30 36 32 33 34 31 31 28 27 26 35 35 36 32 43 46 32 18 15 15 11 11 14 12 9 7 9 11 14 16 19 20 22 23 23 22 21 18 17
15 15 17 11 4 13 23 39 39 27 42 43 35 29 29 27 27 25 20 20 30 27 33 38 38 34 16 14 12 10 10 12 13 11 10 10 11 14 17 20 22 23 25 26 26 26 25 22 21
17 15 10 7 12 15 26 31 35 29 41 16 24 14 24 24 21 18 29 24 28 32 34 39 34 19 19 16 7 8 10 13 12 12 12 12 14 17 20 23 25 26 27 28 29 30 27 26 26
16 19 14 13 9 25 28 36 37 30 18 38 31 22 21 25 28 21 19 22 22 30 34 21 22 29 15 5 5 9 12 11 10 13 13 16 18 21 23 26 27 27 28 29 30 31 32 31 29
17 17 8 9 27 33 43 35 37 34 32 30 36 28 23 10 15 16 18 23 21 28 18 11 10 4 6 5 9 9 12 10 11 15 18 19 21 23 26 28 28 29 30 29 29 31 34 32 27
9 11 6 22 35 40 35 37 29 13 24 7 24 31 29 21 15 11 13 16 22 18 1 8 7 4 5 10 10 7 7 11 16 19 21 21 25 27 29 31 31 30 30 27 29 30 32 32 29
9 14 10 17 26 23 26 22 16 19 28 23 31 22 25 17 10 16 15 15 13 8 9 5 3 5 7 5 4 8 13 16 20 21 23 25 28 32 31 31 34 34 30 32 22 29 26 29 34
10 8 15 29 30 29 26 29 19 17 23 19 21 20 18 10 11 10 12 10 10 9 9 10 8 7 7 9 11 13 16 18 21 24 25 27 29 31 35 30 25 35 37 29 28 39 42 32 32
16 16 29 29 23 29 27 14 13 19 23 16 14 15 10 8 11 14 24 3 6 8 9 9 9 9 9 9 11 14 17 21 23 27 31 33 33 36 29 30 27 32 30 27 35 44 49 49 42
24 26 32 23 10 8 9 5 10 15 16 15 18 16 13 13 10 16 9 7 5 4 4 4 7 8 8 10 13 17 20 22 24 30 32 37 41 36 28 28 41 36 33 32 36 40 44 48 45
21 21 14 14 8 12 18 11 15 11 9 10 9 11 11 8 2 5 5 5 6 6 7 7 7 9 11 14 17 22 24 27 24 31 31 39 32 41 30 35 36 35 38 36 40 45 47 46 47
28 19 17 9 18 0 12 15 6 8 8 6 7 8 10 11 9 6 3 3 4 5 7 8 10 15 15 18 22 23 26 31 24 32 40 33 44 42 39 36 36 40 43 44 43 42 43 45 44
10 9 13 10 15 6 4 8 4 3 3 5 4 5 6 6 5 3 3 5 5 6 7 10 14 16 18 21 25 30 28 33 36 39 39 42 42 43 43 43 43 43 41 41 39 41 41 40 40
11 7 8 4 9 8 4 5 2 6 5 7 8 2 1 2 2 1 3 5 8 8 10 15 17 18 22 25 28 31 33 34 33 34 35 36 37 40 39 40 40 40 42 42 43 42 43 43 44
11 1 2 2 3 11 7 9 6 7 8 13 5 3 3 3 4 5 8 10 12 14 12 18 19 22 24 25 27 27 28 29 31 33 34 35 37 38 40 44 44 41 42 45 47 47 47 48 50
5 11 10 9 4 7 6 15 8 3 3 7 8 7 8 7 10 10 12 13 15 19 18 19 19 21 23 23 23 25 26 29 31 33 35 37 39 41 44 45 47 50 51 53 53 53 53 54 55
6 16 23 11 5 3 11 11 3 5 5 9 11 12 11 12 14 15 16 16 20 20 20 17 19 18 19 20 22 25 28 31 33 36 37 41 42 44 47 49 51 53 55 55 56 57 57 59 59
15 4 17 7 3 7 12 17 28 11 9 9 13 18 19 18 17 20 20 20 21 21 19 15 15 16 19 22 25 30 33 36 39 41 43 44 45 47 49 52 54 55 56 58 59 60 60 62 63
13 8 8 6 10 21 18 19 8 20 17 14 15 20 25 27 25 24 24 20 20 16 13 15 16 19 23 27 29 33 37 39 42 45 47 49 50 51 51 52 54 56 58 60 61 61 62 65 67
4 11 7 5 11 19 12 4 19 22 16 9 9 20 27 28 26 21 19 13 11 13 15 18 21 23 26 30 33 36 40 43 45 47 50 51 53 55 57 59 60 62 64 64 65 66 67 72 76
11 8 7 16 10 6 8 13 20 20 21 24 12 17 20 19 16 12 11 12 14 16 19 22 25 28 31 34 38 41 44 47 49 52 53 55 56 58 59 61 63 64 65 66 68 70 73 77 82
13 9 16 9 9 7 16 15 16 24 17 23 19 13 12 12 12 13 14 15 19 21 24 29 31 34 37 41 44 47 49 52 52 53 55 56 57 59 60 61 63 64 65 67 71 75 79 83 87
2 15 15 10 15 15 15 10 17 19 18 15 14 13 14 15 17 19 20 23 23 27 31 35 39 40 40 45 48 50 52 54 55 56 57 57 59 60 61 62 64 65 67 70 74 79 84 87 88
15 15 12 15 16 16 7 10 24 12 16 17 16 16 17 18 20 23 25 27 31 32 34 38 43 44 45 48 50 52 55 56 57 58 58 59 60 61 62 63 65 66 70 74 79 83 85 86 88
15 19 19 17 16 17 10 8 17 24 21 19 20 19 21 23 26 28 31 32 34 38 39 41 46 47 49 50 53 55 56 56 57 58 59 61 61 63 64 65 67 70 74 79 83 84 85 86 85
18 19 20 21 19 24 22 24 20 23 23 22 23 23 24 27 30 31 35 36 39 42 44 46 50 51 53 53 55 56 56 54 56 58 61 61 64 65 67 67 70 74 77 81 82 83 86 85 88